SV8FES Weather Reports


time (UTC)temp
C
wind
direction
speed
KPH
gust
KPH
rain 1hr
cm
rain 24hr
cm
rain mn
cm
humidity
%
barometer
mb
20260508083112 22 275 1.6 4.8 0.00 0.00 0.00 58 1019.8
20260508083012 22 276 1.6 4.8 0.00 0.00 0.00 58 1019.7
20260508082911 21 279 1.6 4.8 0.00 0.00 0.00 58 1019.7
20260508082811 21 282 1.6 4.8 0.00 0.00 0.00 58 1019.9
20260508082712 21 290 1.6 4.8 0.00 0.00 0.00 58 1019.8
20260508082613 21 290 1.6 4.8 0.00 0.00 0.00 58 1019.9
20260508082511 21 290 1.6 4.8 0.00 0.00 0.00 59 1019.8
20260508082411 21 291 1.6 6.4 0.00 0.00 0.00 58 1019.8
20260508082311 21 291 1.6 6.4 0.00 0.00 0.00 58 1019.8
20260508082211 21 291 3.2 6.4 0.00 0.00 0.00 59 1019.8
20260508082111 21 291 1.6 6.4 0.00 0.00 0.00 59 1019.8
20260508082011 21 291 1.6 6.4 0.00 0.00 0.00 59 1019.7
20260508081911 21 291 1.6 6.4 0.00 0.00 0.00 59 1019.7
20260508081812 21 291 1.6 6.4 0.00 0.00 0.00 60 1019.8
20260508081711 21 291 1.6 6.4 0.00 0.00 0.00 60 1019.7
20260508081613 21 290 1.6 6.4 0.00 0.00 0.00 60 1019.8
20260508081509 21 290 1.6 6.4 0.00 0.00 0.00 60 1019.8
20260508081406 21 293 1.6 6.4 0.00 0.00 0.00 60 1019.8
20260508081308 21 289 1.6 6.4 0.00 0.00 0.00 60 1019.9
20260508081209 21 262 1.6 6.4 0.00 0.00 0.00 61 1019.8
20260508081108 21 239 3.2 6.4 0.00 0.00 0.00 61 1019.8
20260508081008 21 239 3.2 6.4 0.00 0.00 0.00 61 1019.8
20260508080909 21 239 3.2 6.4 0.00 0.00 0.00 61 1019.8
20260508080808 21 239 3.2 6.4 0.00 0.00 0.00 61 1019.7
20260508080707 21 239 1.6 6.4 0.00 0.00 0.00 61 1019.7
20260508080609 21 240 1.6 6.4 0.00 0.00 0.00 61 1019.7
20260508080508 21 239 1.6 6.4 0.00 0.00 0.00 61 1019.7
20260508080408 21 239 1.6 6.4 0.00 0.00 0.00 61 1019.7
20260508080309 21 252 1.6 6.4 0.00 0.00 0.00 61 1019.7
20260508080207 21 282 1.6 4.8 0.00 0.00 0.00 61 1019.7
20260508080106 21 282 1.6 4.8 0.00 0.00 0.00 61 1019.7
20260508080008 21 274 1.6 4.8 0.00 0.00 0.00 61 1019.7
20260508075908 21 274 1.6 8.0 0.00 0.00 0.00 61 1019.6
20260508075809 21 274 3.2 8.0 0.00 0.00 0.00 61 1019.7
20260508075708 21 274 3.2 8.0 0.00 0.00 0.00 61 1019.6
20260508075604 21 274 3.2 8.0 0.00 0.00 0.00 61 1019.7
20260508075505 21 274 3.2 8.0 0.00 0.00 0.00 61 1019.6
20260508075404 21 257 3.2 8.0 0.00 0.00 0.00 61 1019.6
20260508075308 21 218 3.2 8.0 0.00 0.00 0.00 61 1019.7
20260508075203 21 217 3.2 8.0 0.00 0.00 0.00 61 1019.7
20260508075103 21 220 3.2 8.0 0.00 0.00 0.00 60 1019.7
20260508075005 21 220 3.2 8.0 0.00 0.00 0.00 60 1019.7
20260508074905 21 224 3.2 6.4 0.00 0.00 0.00 60 1019.6
20260508074803 21 224 3.2 6.4 0.00 0.00 0.00 60 1019.6
20260508074704 21 221 3.2 6.4 0.00 0.00 0.00 60 1019.6
20260508074605 21 249 3.2 6.4 0.00 0.00 0.00 60 1019.6
20260508074504 21 230 3.2 6.4 0.00 0.00 0.00 59 1019.6
20260508074402 21 273 3.2 6.4 0.00 0.00 0.00 59 1019.5
20260508074304 21 273 3.2 6.4 0.00 0.00 0.00 59 1019.5
20260508074203 21 272 3.2 6.4 0.00 0.00 0.00 59 1019.5
20260508074103 21 272 3.2 6.4 0.00 0.00 0.00 59 1019.5
20260508074004 21 272 3.2 6.4 0.00 0.00 0.00 59 1019.4
20260508073904 21 272 3.2 6.4 0.00 0.00 0.00 59 1019.4
20260508073804 21 272 3.2 9.7 0.00 0.00 0.00 58 1019.5
20260508073703 21 272 3.2 9.7 0.00 0.00 0.00 58 1019.4
20260508073603 21 267 4.8 9.7 0.00 0.00 0.00 58 1019.4
20260508073504 21 266 4.8 11.3 0.00 0.00 0.00 58 1019.4
20260508073403 21 266 4.8 11.3 0.00 0.00 0.00 58 1019.3
20260508073303 21 265 4.8 11.3 0.00 0.00 0.00 58 1019.3
20260508073203 21 265 4.8 11.3 0.00 0.00 0.00 58 1019.3
20260508073104 21 243 4.8 11.3 0.00 0.00 0.00 58 1019.3
20260508073005 22 243 4.8 11.3 0.00 0.00 0.00 57 1019.2
20260508072907 22 230 4.8 11.3 0.00 0.00 0.00 57 1019.2
20260508072802 22 259 4.8 11.3 0.00 0.00 0.00 57 1019.2
20260508072704 22 237 4.8 11.3 0.00 0.00 0.00 56 1019.1
20260508072603 22 268 4.8 11.3 0.00 0.00 0.00 56 1019.2
20260508072505 22 243 3.2 9.7 0.00 0.00 0.00 55 1019.1
20260508072404 22 253 3.2 8.0 0.00 0.00 0.00 55 1019.0
20260508072307 22 224 3.2 8.0 0.00 0.00 0.00 55 1019.0
20260508072205 22 229 3.2 8.0 0.00 0.00 0.00 54 1019.0
20260508072103 22 245 3.2 8.0 0.00 0.00 0.00 54 1019.0
20260508072004 22 243 3.2 8.0 0.00 0.00 0.00 55 1019.0
20260508071904 22 235 3.2 8.0 0.00 0.00 0.00 55 1018.9
20260508071803 22 235 3.2 8.0 0.00 0.00 0.00 57 1019.0
20260508071704 22 272 3.2 6.4 0.00 0.00 0.00 57 1018.9
20260508071603 22 272 1.6 6.4 0.00 0.00 0.00 57 1018.9
20260508071504 22 272 1.6 6.4 0.00 0.00 0.00 56 1018.8
20260508071402 22 272 1.6 6.4 0.00 0.00 0.00 55 1018.8
20260508071302 22 249 1.6 6.4 0.00 0.00 0.00 55 1018.7
20260508071202 22 234 1.6 6.4 0.00 0.00 0.00 56 1018.8
20260508071105 22 232 1.6 6.4 0.00 0.00 0.00 56 1018.7
20260508071004 22 232 0.0 6.4 0.00 0.00 0.00 55 1018.7
20260508070903 22 5 0.0 4.8 0.00 0.00 0.00 55 1018.8
20260508070803 22 5 0.0 4.8 0.00 0.00 0.00 55 1018.7
20260508070704 22 5 0.0 4.8 0.00 0.00 0.00 55 1018.5
20260508070602 22 5 1.6 4.8 0.00 0.00 0.00 55 1018.6
20260508070503 22 5 1.6 4.8 0.00 0.00 0.00 54 1018.6
20260508070403 22 5 1.6 4.8 0.00 0.00 0.00 54 1018.6
20260508070303 21 5 1.6 4.8 0.00 0.00 0.00 55 1018.5
20260508070205 21 287 1.6 3.2 0.00 0.00 0.00 55 1018.5
20260508070003 21 286 1.6 4.8 0.00 0.00 0.00 57 1018.4
20260508065903 21 286 1.6 4.8 0.00 0.00 0.00 57 1018.4
20260508065802 21 286 1.6 4.8 0.00 0.00 0.00 56 1018.3
20260508065702 21 286 3.2 6.4 0.00 0.00 0.00 56 1018.3
20260508065602 21 286 3.2 6.4 0.00 0.00 0.00 56 1018.2
20260508065505 21 286 3.2 6.4 0.00 0.00 0.00 56 1018.2
20260508065405 21 286 3.2 6.4 0.00 0.00 0.00 55 1018.1
20260508065306 21 286 3.2 6.4 0.00 0.00 0.00 55 1018.2
20260508065204 21 286 3.2 6.4 0.00 0.00 0.00 55 1018.1
20260508065104 21 286 1.6 6.4 0.00 0.00 0.00 54 1018.1
20260508065005 21 283 1.6 6.4 0.00 0.00 0.00 54 1018.1
20260508064903 21 283 1.6 6.4 0.00 0.00 0.00 54 1018.1
20260508064803 21 283 1.6 6.4 0.00 0.00 0.00 53 1018.1
20260508064703 21 295 1.6 6.4 0.00 0.00 0.00 53 1018.0
20260508064602 21 299 1.6 4.8 0.00 0.00 0.00 53 1018.0
20260508064504 21 299 1.6 4.8 0.00 0.00 0.00 53 1017.9
20260508064403 21 299 1.6 4.8 0.00 0.00 0.00 53 1017.9
20260508064304 21 299 3.2 4.8 0.00 0.00 0.00 53 1018.0
20260508064203 21 299 3.2 6.4 0.00 0.00 0.00 53 1018.0
20260508064105 21 299 3.2 6.4 0.00 0.00 0.00 53 1017.9
20260508064004 21 299 3.2 6.4 0.00 0.00 0.00 53 1017.9
20260508063903 21 299 3.2 6.4 0.00 0.00 0.00 53 1017.9
20260508063805 21 299 3.2 6.4 0.00 0.00 0.00 53 1017.9
20260508063702 21 299 3.2 6.4 0.00 0.00 0.00 52 1017.9
20260508063602 21 299 3.2 6.4 0.00 0.00 0.00 52 1017.8
20260508063505 21 299 3.2 6.4 0.00 0.00 0.00 52 1017.8
20260508063404 21 297 3.2 6.4 0.00 0.00 0.00 51 1017.7
20260508063302 21 297 3.2 6.4 0.00 0.00 0.00 52 1017.8
20260508063204 21 303 3.2 6.4 0.00 0.00 0.00 52 1017.8
20260508063103 21 303 3.2 6.4 0.00 0.00 0.00 51 1017.7
20260508063018 21 303 3.2 6.4 0.00 0.00 0.00 52 1017.7
20260508062903 21 303 3.2 6.4 0.00 0.00 0.00 52 1017.8
20260508062803 21 303 3.2 6.4 0.00 0.00 0.00 52 1017.7
20260508062703 21 303 3.2 6.4 0.00 0.00 0.00 53 1017.7
20260508062609 21 303 1.6 6.4 0.00 0.00 0.00 53 1017.7
20260508062504 21 303 1.6 6.4 0.00 0.00 0.00 54 1017.7
20260508062402 21 326 1.6 6.4 0.00 0.00 0.00 54 1017.6
20260508062305 21 328 1.6 4.8 0.00 0.00 0.00 55 1017.6
20260508062205 21 300 0.0 4.8 0.00 0.00 0.00 55 1017.5
20260508062107 21 320 0.0 4.8 0.00 0.00 0.00 55 1017.4
20260508062006 21 322 0.0 4.8 0.00 0.00 0.00 55 1017.4
20260508061902 21 0 0.0 1.6 0.00 0.00 0.00 55 1017.3
20260508061802 21 0 0.0 0.0 0.00 0.00 0.00 55 1017.4
20260508061704 20 0 0.0 0.0 0.00 0.00 0.00 55 1017.3
20260508061602 20 0 0.0 0.0 0.00 0.00 0.00 55 1017.4
20260508061504 20 0 0.0 0.0 0.00 0.00 0.00 55 1017.3
20260508061404 20 0 0.0 0.0 0.00 0.00 0.00 55 1017.3
20260508061304 20 0 0.0 0.0 0.00 0.00 0.00 55 1017.4
20260508061206 20 0 0.0 0.0 0.00 0.00 0.00 54 1017.3
20260508061103 20 0 0.0 0.0 0.00 0.00 0.00 54 1017.3
20260508061008 20 0 0.0 0.0 0.00 0.00 0.00 53 1017.3
20260508060904 20 0 0.0 1.6 0.00 0.00 0.00 53 1017.3
20260508060804 20 0 0.0 1.6 0.00 0.00 0.00 53 1017.3
20260508060704 20 0 0.0 1.6 0.00 0.00 0.00 53 1017.3
20260508060604 20 0 0.0 1.6 0.00 0.00 0.00 53 1017.4
20260508060504 20 0 0.0 1.6 0.00 0.00 0.00 54 1017.3
20260508060402 20 0 0.0 1.6 0.00 0.00 0.00 54 1017.4
20260508060303 20 0 0.0 1.6 0.00 0.00 0.00 54 1017.4
20260508060202 20 0 0.0 1.6 0.00 0.00 0.00 54 1017.4
20260508060101 20 0 0.0 1.6 0.00 0.00 0.00 54 1017.4
20260508055959 20 0 0.0 1.6 0.00 0.00 0.00 53 1017.5
20260508055902 20 0 0.0 1.6 0.00 0.00 0.00 53 1017.5
20260508055800 20 0 0.0 0.0 0.00 0.00 0.00 53 1017.5
20260508055657 20 0 0.0 0.0 0.00 0.00 0.00 54 1017.5
20260508055557 20 0 0.0 0.0 0.00 0.00 0.00 54 1017.5
20260508055454 20 0 0.0 1.6 0.00 0.00 0.00 54 1017.5
20260508055355 20 0 0.0 1.6 0.00 0.00 0.00 54 1017.6
20260508055250 20 0 0.0 1.6 0.00 0.00 0.00 54 1017.6
20260508055150 20 0 0.0 3.2 0.00 0.00 0.00 54 1017.5
20260508055051 20 0 0.0 3.2 0.00 0.00 0.00 54 1017.5
20260508054948 20 0 0.0 3.2 0.00 0.00 0.00 54 1017.5
20260508054848 20 0 0.0 3.2 0.00 0.00 0.00 54 1017.5
20260508054748 20 0 0.0 3.2 0.00 0.00 0.00 54 1017.4
20260508054647 20 0 0.0 3.2 0.00 0.00 0.00 54 1017.4
20260508054549 20 0 0.0 3.2 0.00 0.00 0.00 54 1017.4
20260508054445 20 0 0.0 3.2 0.00 0.00 0.00 54 1017.3
20260508054347 20 0 0.0 3.2 0.00 0.00 0.00 54 1017.4
20260508054244 20 0 0.0 3.2 0.00 0.00 0.00 53 1017.3
20260508054141 20 0 0.0 3.2 0.00 0.00 0.00 54 1017.2
20260508054047 20 0 0.0 3.2 0.00 0.00 0.00 54 1017.2
20260508053940 20 0 0.0 3.2 0.00 0.00 0.00 54 1017.2
20260508053839 20 0 0.0 3.2 0.00 0.00 0.00 54 1017.2
20260508053738 20 0 0.0 3.2 0.00 0.00 0.00 54 1017.1
20260508053637 20 0 0.0 3.2 0.00 0.00 0.00 54 1017.1
20260508053535 19 0 1.6 3.2 0.00 0.00 0.00 54 1017.2
20260508053435 19 0 1.6 4.8 0.00 0.00 0.00 53 1017.2
20260508053337 19 0 1.6 4.8 0.00 0.00 0.00 54 1017.2
20260508053235 19 0 1.6 4.8 0.00 0.00 0.00 55 1017.3
20260508053132 19 0 1.6 4.8 0.00 0.00 0.00 55 1017.2
20260508053033 19 0 1.6 4.8 0.00 0.00 0.00 56 1017.2
20260508052933 19 0 1.6 4.8 0.00 0.00 0.00 56 1017.3
20260508052831 19 0 1.6 4.8 0.00 0.00 0.00 56 1017.3
20260508052732 19 0 1.6 4.8 0.00 0.00 0.00 58 1017.4
20260508052632 20 0 1.6 4.8 0.00 0.00 0.00 57 1017.3
20260508052531 20 0 1.6 4.8 0.00 0.00 0.00 57 1017.3
20260508052431 20 0 1.6 4.8 0.00 0.00 0.00 57 1017.2
20260508052330 20 0 1.6 4.8 0.00 0.00 0.00 57 1017.3
20260508052231 20 276 1.6 4.8 0.00 0.00 0.00 57 1017.1
20260508052131 20 276 1.6 4.8 0.00 0.00 0.00 57 1017.2
20260508052037 20 276 1.6 4.8 0.00 0.00 0.00 57 1017.1
20260508051932 20 276 1.6 4.8 0.00 0.00 0.00 56 1017.1
20260508051831 20 276 0.0 4.8 0.00 0.00 0.00 55 1017.1
20260508051731 20 276 0.0 4.8 0.00 0.00 0.00 55 1017.0
20260508051632 20 276 0.0 3.2 0.00 0.00 0.00 53 1017.0
20260508051533 20 36 0.0 0.0 0.00 0.00 0.00 52 1016.9
20260508051433 20 36 0.0 1.6 0.00 0.00 0.00 52 1016.9
20260508051332 20 36 0.0 1.6 0.00 0.00 0.00 51 1016.9
20260508051231 20 36 0.0 1.6 0.00 0.00 0.00 52 1016.9
20260508051132 20 36 0.0 1.6 0.00 0.00 0.00 52 1016.8
20260508051032 20 36 0.0 1.6 0.00 0.00 0.00 53 1016.9
20260508050931 20 36 0.0 1.6 0.00 0.00 0.00 54 1016.9
20260508050834 20 36 0.0 1.6 0.00 0.00 0.00 54 1016.8
20260508050730 20 36 0.0 1.6 0.00 0.00 0.00 53 1016.8
20260508050631 20 36 0.0 1.6 0.00 0.00 0.00 52 1016.8
20260508050530 20 36 0.0 1.6 0.00 0.00 0.00 51 1016.8
20260508050432 20 36 0.0 1.6 0.00 0.00 0.00 51 1016.7
20260508050330 20 36 0.0 1.6 0.00 0.00 0.00 52 1016.8
20260508050232 20 36 0.0 1.6 0.00 0.00 0.00 52 1016.8
20260508050131 20 36 0.0 1.6 0.00 0.00 0.00 52 1016.7
20260508050030 20 36 0.0 1.6 0.00 0.00 0.00 52 1016.8
20260508045931 20 36 0.0 1.6 0.00 0.00 0.00 52 1016.8
20260508045831 20 36 0.0 3.2 0.00 0.00 0.00 52 1016.8
20260508045730 20 36 0.0 3.2 0.00 0.00 0.00 52 1016.8
20260508045631 20 36 0.0 3.2 0.00 0.00 0.00 52 1016.8
20260508045529 20 36 0.0 3.2 0.00 0.00 0.00 51 1016.8
20260508045432 20 36 0.0 3.2 0.00 0.00 0.00 50 1016.8
20260508045329 20 36 0.0 3.2 0.00 0.00 0.00 49 1016.9
20260508045231 20 36 0.0 3.2 0.00 0.00 0.00 49 1016.8
20260508045130 20 36 1.6 3.2 0.00 0.00 0.00 49 1016.9
20260508045030 20 36 1.6 4.8 0.00 0.00 0.00 50 1016.9
20260508044931 20 36 1.6 4.8 0.00 0.00 0.00 50 1016.9
20260508044832 20 10 1.6 4.8 0.00 0.00 0.00 50 1016.9
20260508044734 20 10 1.6 4.8 0.00 0.00 0.00 50 1017.0
20260508044631 20 10 1.6 4.8 0.00 0.00 0.00 49 1016.9
20260508044531 20 10 1.6 4.8 0.00 0.00 0.00 48 1016.9
20260508044433 20 10 0.0 4.8 0.00 0.00 0.00 48 1016.9
20260508044331 20 10 0.0 4.8 0.00 0.00 0.00 47 1016.8
20260508044232 20 10 0.0 4.8 0.00 0.00 0.00 47 1016.9
20260508044131 20 10 0.0 4.8 0.00 0.00 0.00 47 1016.8
20260508044031 20 10 0.0 3.2 0.00 0.00 0.00 47 1016.8
20260508043932 20 10 0.0 1.6 0.00 0.00 0.00 47 1016.9
20260508043832 20 10 0.0 1.6 0.00 0.00 0.00 47 1016.8
20260508043732 20 10 0.0 1.6 0.00 0.00 0.00 47 1016.8
20260508043632 20 10 0.0 1.6 0.00 0.00 0.00 47 1016.8
20260508043532 20 10 0.0 1.6 0.00 0.00 0.00 47 1016.8
20260508043431 20 10 0.0 1.6 0.00 0.00 0.00 47 1016.8
20260508043331 20 10 0.0 3.2 0.00 0.00 0.00 47 1016.8
20260508043231 20 10 0.0 3.2 0.00 0.00 0.00 46 1016.8
20260508043132 20 10 0.0 3.2 0.00 0.00 0.00 46 1016.8
20260508043032 20 10 0.0 3.2 0.00 0.00 0.00 46 1016.8
20260508042931 20 10 0.0 3.2 0.00 0.00 0.00 46 1016.8
20260508042831 20 10 0.0 4.8 0.00 0.00 0.00 46 1016.8
20260508042732 20 10 1.6 4.8 0.00 0.00 0.00 46 1016.8
20260508042631 20 10 1.6 4.8 0.00 0.00 0.00 46 1016.8
20260508042532 20 10 1.6 4.8 0.00 0.00 0.00 46 1016.8
20260508042431 20 10 1.6 4.8 0.00 0.00 0.00 46 1016.8
20260508042331 20 10 1.6 6.4 0.00 0.00 0.00 45 1016.9
20260508042231 20 10 3.2 6.4 0.00 0.00 0.00 45 1016.8
20260508042130 20 10 3.2 6.4 0.00 0.00 0.00 45 1016.8
20260508042031 20 10 3.2 6.4 0.00 0.00 0.00 45 1016.8
20260508041931 20 10 3.2 8.0 0.00 0.00 0.00 44 1016.8
20260508041831 20 10 3.2 8.0 0.00 0.00 0.00 44 1016.8
20260508041732 20 41 3.2 8.0 0.00 0.00 0.00 44 1016.8
20260508041632 20 66 4.8 8.0 0.00 0.00 0.00 44 1016.7
20260508041530 20 66 4.8 8.0 0.00 0.00 0.00 43 1016.7
20260508041430 20 76 4.8 8.0 0.00 0.00 0.00 43 1016.7
20260508041331 20 79 4.8 8.0 0.00 0.00 0.00 43 1016.6
20260508041232 20 65 4.8 8.0 0.00 0.00 0.00 43 1016.6
20260508041132 20 88 4.8 8.0 0.00 0.00 0.00 43 1016.7
20260508041032 20 90 4.8 8.0 0.00 0.00 0.00 44 1016.6
20260508040930 20 79 4.8 9.7 0.00 0.00 0.00 43 1016.6
20260508040835 20 80 4.8 9.7 0.00 0.00 0.00 43 1016.7
20260508040730 19 74 4.8 9.7 0.00 0.00 0.00 43 1016.7
20260508040631 19 74 4.8 9.7 0.00 0.00 0.00 43 1016.8
20260508040532 19 84 4.8 9.7 0.00 0.00 0.00 44 1016.7
20260508040432 19 75 4.8 9.7 0.00 0.00 0.00 44 1016.8
20260508040332 19 80 4.8 9.7 0.00 0.00 0.00 44 1016.8
20260508040232 19 87 4.8 9.7 0.00 0.00 0.00 45 1016.8
20260508040132 19 81 4.8 9.7 0.00 0.00 0.00 44 1016.8
20260508040031 19 81 4.8 9.7 0.00 0.00 0.00 45 1016.8
20260508035934 19 76 4.8 8.0 0.00 0.00 0.00 44 1016.8
20260508035831 19 83 4.8 8.0 0.00 0.00 0.00 45 1016.8
20260508035730 19 79 3.2 8.0 0.00 0.00 0.00 45 1016.8
20260508035632 19 76 3.2 8.0 0.00 0.00 0.00 45 1016.8
20260508035530 19 81 3.2 8.0 0.00 0.00 0.00 45 1016.8
20260508035431 19 80 3.2 8.0 0.00 0.00 0.00 45 1016.8
20260508035331 18 83 1.6 6.4 0.00 0.00 0.00 46 1016.8
20260508035230 18 79 1.6 6.4 0.00 0.00 0.00 46 1016.9
20260508035132 18 72 1.6 4.8 0.00 0.00 0.00 46 1016.9
20260508035031 18 68 1.6 4.8 0.00 0.00 0.00 46 1016.8
20260508034934 18 71 1.6 6.4 0.00 0.00 0.00 45 1016.9
20260508034831 18 70 1.6 6.4 0.00 0.00 0.00 45 1016.9
20260508034730 18 70 3.2 11.3 0.00 0.00 0.00 45 1016.9
20260508034630 18 70 3.2 11.3 0.00 0.00 0.00 45 1016.9
20260508034530 18 70 3.2 11.3 0.00 0.00 0.00 45 1016.9
20260508034432 18 71 4.8 11.3 0.00 0.00 0.00 45 1016.9
20260508034332 18 71 4.8 11.3 0.00 0.00 0.00 46 1016.8
20260508034231 18 71 4.8 11.3 0.00 0.00 0.00 47 1016.9
20260508034130 18 71 4.8 11.3 0.00 0.00 0.00 47 1016.9
20260508034030 18 70 4.8 11.3 0.00 0.00 0.00 47 1016.9
20260508033935 18 76 4.8 11.3 0.00 0.00 0.00 47 1016.9
20260508033831 18 74 4.8 11.3 0.00 0.00 0.00 47 1017.0
20260508033732 18 74 4.8 11.3 0.00 0.00 0.00 46 1017.0
20260508033632 18 71 3.2 8.0 0.00 0.00 0.00 47 1017.0
20260508033530 18 72 3.2 6.4 0.00 0.00 0.00 46 1017.0
20260508033432 18 66 3.2 6.4 0.00 0.00 0.00 46 1016.9
20260508033332 18 67 3.2 6.4 0.00 0.00 0.00 46 1017.0
20260508033230 18 74 3.2 6.4 0.00 0.00 0.00 46 1017.0
20260508033130 18 74 3.2 6.4 0.00 0.00 0.00 46 1017.0
20260508033031 18 74 3.2 6.4 0.00 0.00 0.00 46 1017.0
20260508032933 18 69 3.2 6.4 0.00 0.00 0.00 46 1017.0
20260508032831 18 75 3.2 6.4 0.00 0.00 0.00 46 1017.0
20260508032731 18 75 1.6 6.4 0.00 0.00 0.00 46 1017.1
20260508032632 18 73 1.6 6.4 0.00 0.00 0.00 46 1017.0
20260508032531 18 73 1.6 6.4 0.00 0.00 0.00 47 1017.0
20260508032431 18 58 1.6 4.8 0.00 0.00 0.00 47 1017.0
20260508032332 18 66 1.6 4.8 0.00 0.00 0.00 47 1016.9
20260508032233 18 66 1.6 6.4 0.00 0.00 0.00 46 1016.9
20260508032130 18 67 1.6 6.4 0.00 0.00 0.00 47 1017.0
20260508032033 18 67 1.6 6.4 0.00 0.00 0.00 47 1017.0
20260508031931 18 68 1.6 6.4 0.00 0.00 0.00 47 1017.0
20260508031832 18 70 1.6 6.4 0.00 0.00 0.00 48 1017.0
20260508031732 18 70 1.6 6.4 0.00 0.00 0.00 48 1017.0
20260508031633 18 70 1.6 11.3 0.00 0.00 0.00 47 1017.0
20260508031532 18 70 3.2 12.9 0.00 0.00 0.00 47 1017.0
20260508031431 18 70 3.2 12.9 0.00 0.00 0.00 47 1017.0
20260508031330 18 70 3.2 12.9 0.00 0.00 0.00 46 1017.0
20260508031233 18 65 3.2 12.9 0.00 0.00 0.00 46 1017.0
20260508031132 18 79 3.2 12.9 0.00 0.00 0.00 46 1017.0
20260508031031 18 79 3.2 12.9 0.00 0.00 0.00 47 1017.0
20260508030936 18 79 4.8 12.9 0.00 0.00 0.00 47 1017.0
20260508030832 18 79 4.8 12.9 0.00 0.00 0.00 47 1017.0
20260508030732 18 79 3.2 12.9 0.00 0.00 0.00 48 1017.0
20260508030631 18 78 3.2 12.9 0.00 0.00 0.00 48 1017.0
20260508030532 18 77 1.6 12.9 0.00 0.00 0.00 48 1017.0
20260508030434 18 73 1.6 6.4 0.00 0.00 0.00 49 1017.1
20260508030331 18 59 1.6 4.8 0.00 0.00 0.00 49 1017.0
20260508030232 18 58 1.6 9.7 0.00 0.00 0.00 49 1017.0
20260508030130 18 58 1.6 9.7 0.00 0.00 0.00 50 1017.1
20260508030032 18 58 3.2 9.7 0.00 0.00 0.00 50 1017.1
20260508025932 18 58 3.2 11.3 0.00 0.00 0.00 49 1017.0
20260508025831 18 58 3.2 11.3 0.00 0.00 0.00 50 1017.1
20260508025732 18 58 4.8 12.9 0.00 0.00 0.00 50 1017.0
20260508025630 18 58 6.4 12.9 0.00 0.00 0.00 50 1017.1
20260508025530 18 58 8.0 14.5 0.00 0.00 0.00 50 1017.0
20260508025431 18 53 8.0 16.1 0.00 0.00 0.00 50 1016.9
20260508025333 18 84 9.7 16.1 0.00 0.00 0.00 50 1016.9
20260508025232 18 80 9.7 16.1 0.00 0.00 0.00 50 1016.9
20260508025131 18 75 9.7 16.1 0.00 0.00 0.00 50 1016.9
20260508025030 18 70 9.7 16.1 0.00 0.00 0.00 50 1017.0
20260508024930 18 81 9.7 16.1 0.00 0.00 0.00 50 1017.0
20260508024831 18 85 9.7 16.1 0.00 0.00 0.00 50 1017.0
20260508024730 18 77 9.7 16.1 0.00 0.00 0.00 50 1017.0
20260508024630 18 71 9.7 16.1 0.00 0.00 0.00 50 1017.0
20260508024532 18 81 9.7 16.1 0.00 0.00 0.00 50 1017.0
20260508024432 18 79 9.7 16.1 0.00 0.00 0.00 50 1017.0
20260508024332 18 89 8.0 16.1 0.00 0.00 0.00 50 1017.0
20260508024131 18 91 8.0 12.9 0.00 0.00 0.00 50 1017.0
20260508024032 18 73 8.0 12.9 0.00 0.00 0.00 50 1017.0
20260508023932 18 73 8.0 12.9 0.00 0.00 0.00 50 1016.9
20260508023832 18 77 8.0 14.5 0.00 0.00 0.00 50 1017.0
20260508023731 18 81 8.0 14.5 0.00 0.00 0.00 50 1017.0
20260508023632 18 80 8.0 14.5 0.00 0.00 0.00 50 1017.1
20260508023532 18 79 8.0 14.5 0.00 0.00 0.00 50 1017.0
20260508023432 18 77 8.0 14.5 0.00 0.00 0.00 50 1017.0
20260508023330 18 81 8.0 14.5 0.00 0.00 0.00 50 1017.1
20260508023232 18 82 6.4 14.5 0.00 0.00 0.00 50 1017.0
20260508023132 18 79 6.4 14.5 0.00 0.00 0.00 50 1017.1
20260508023030 18 79 6.4 14.5 0.00 0.00 0.00 50 1017.1
20260508022932 18 86 6.4 14.5 0.00 0.00 0.00 50 1017.0
20260508022832 18 87 4.8 14.5 0.00 0.00 0.00 50 1017.1
20260508022734 18 79 4.8 8.0 0.00 0.00 0.00 50 1017.1
20260508022632 18 76 4.8 8.0 0.00 0.00 0.00 50 1017.1
20260508022530 18 78 4.8 6.4 0.00 0.00 0.00 50 1017.1
20260508022430 18 81 4.8 6.4 0.00 0.00 0.00 50 1017.1
20260508022332 18 77 3.2 6.4 0.00 0.00 0.00 50 1017.2
20260508022231 18 81 3.2 6.4 0.00 0.00 0.00 50 1017.2
20260508022132 18 80 3.2 6.4 0.00 0.00 0.00 51 1017.2
20260508022032 18 79 3.2 6.4 0.00 0.00 0.00 51 1017.2
20260508021932 18 76 3.2 6.4 0.00 0.00 0.00 51 1017.2
20260508021831 18 79 3.2 6.4 0.00 0.00 0.00 51 1017.3
20260508021733 18 76 3.2 6.4 0.00 0.00 0.00 51 1017.3
20260508021631 18 76 1.6 6.4 0.00 0.00 0.00 51 1017.2
20260508021529 18 58 1.6 4.8 0.00 0.00 0.00 51 1017.3
20260508021432 18 76 1.6 4.8 0.00 0.00 0.00 51 1017.3
20260508021331 18 76 1.6 4.8 0.00 0.00 0.00 51 1017.2
20260508021231 18 76 1.6 4.8 0.00 0.00 0.00 51 1017.3
20260508021130 18 76 1.6 4.8 0.00 0.00 0.00 52 1017.3
20260508021032 18 76 1.6 4.8 0.00 0.00 0.00 52 1017.3
20260508020932 18 76 1.6 4.8 0.00 0.00 0.00 53 1017.3
20260508020832 18 76 1.6 4.8 0.00 0.00 0.00 53 1017.3
20260508020731 18 77 1.6 4.8 0.00 0.00 0.00 53 1017.3
20260508020632 18 76 1.6 3.2 0.00 0.00 0.00 53 1017.3
20260508020530 18 76 1.6 3.2 0.00 0.00 0.00 53 1017.3
20260508020430 18 76 1.6 3.2 0.00 0.00 0.00 53 1017.3
20260508020330 18 76 0.0 3.2 0.00 0.00 0.00 54 1017.3
20260508020231 18 76 0.0 3.2 0.00 0.00 0.00 54 1017.2
20260508020131 18 76 0.0 3.2 0.00 0.00 0.00 54 1017.3
20260508020033 18 76 0.0 1.6 0.00 0.00 0.00 54 1017.3
20260508015931 18 76 0.0 1.6 0.00 0.00 0.00 54 1017.3
20260508015833 18 76 0.0 1.6 0.00 0.00 0.00 54 1017.3
20260508015732 18 76 0.0 3.2 0.00 0.00 0.00 54 1017.3
20260508015631 18 76 0.0 3.2 0.00 0.00 0.00 54 1017.3
20260508015530 18 76 1.6 4.8 0.00 0.00 0.00 54 1017.3
20260508015432 18 76 1.6 4.8 0.00 0.00 0.00 54 1017.3
20260508015331 18 76 1.6 4.8 0.00 0.00 0.00 54 1017.3
20260508015232 19 76 1.6 4.8 0.00 0.00 0.00 54 1017.1
20260508015133 19 76 1.6 4.8 0.00 0.00 0.00 55 1017.2
20260508015031 19 76 1.6 4.8 0.00 0.00 0.00 55 1017.3
20260508014932 19 76 1.6 4.8 0.00 0.00 0.00 55 1017.2
20260508014830 19 76 1.6 4.8 0.00 0.00 0.00 55 1017.2
20260508014732 19 76 1.6 4.8 0.00 0.00 0.00 55 1017.2
20260508014632 19 76 3.2 6.4 0.00 0.00 0.00 55 1017.2
20260508014532 19 76 1.6 6.4 0.00 0.00 0.00 55 1017.2
20260508014431 19 75 1.6 6.4 0.00 0.00 0.00 54 1017.2
20260508014330 19 76 1.6 6.4 0.00 0.00 0.00 54 1017.2
20260508014230 19 78 1.6 6.4 0.00 0.00 0.00 54 1017.1
20260508014132 19 78 1.6 6.4 0.00 0.00 0.00 54 1017.2
20260508014031 19 77 1.6 6.4 0.00 0.00 0.00 54 1017.1
20260508013931 19 78 1.6 6.4 0.00 0.00 0.00 54 1017.1
20260508013832 19 78 1.6 6.4 0.00 0.00 0.00 54 1017.1
20260508013732 19 79 1.6 6.4 0.00 0.00 0.00 54 1017.2
20260508013630 19 76 1.6 3.2 0.00 0.00 0.00 54 1017.1
20260508013532 19 74 1.6 3.2 0.00 0.00 0.00 54 1017.1
20260508013430 19 74 1.6 4.8 0.00 0.00 0.00 54 1017.1
20260508013332 19 74 0.0 4.8 0.00 0.00 0.00 53 1017.1
20260508013232 19 74 0.0 4.8 0.00 0.00 0.00 53 1017.2
20260508013131 19 74 0.0 4.8 0.00 0.00 0.00 53 1017.2
20260508013033 19 74 0.0 4.8 0.00 0.00 0.00 53 1017.2
20260508012932 19 74 0.0 4.8 0.00 0.00 0.00 53 1017.1
20260508012837 19 74 0.0 4.8 0.00 0.00 0.00 53 1017.1
20260508012731 19 74 0.0 4.8 0.00 0.00 0.00 53 1017.1
20260508012630 19 74 0.0 4.8 0.00 0.00 0.00 53 1017.1
20260508012530 19 74 0.0 4.8 0.00 0.00 0.00 52 1017.1
20260508012430 19 74 0.0 4.8 0.00 0.00 0.00 52 1017.1
20260508012332 19 74 0.0 3.2 0.00 0.00 0.00 52 1017.1
20260508012230 19 74 0.0 3.2 0.00 0.00 0.00 51 1017.1
20260508012133 19 74 0.0 4.8 0.00 0.00 0.00 50 1017.1
20260508012031 19 74 1.6 4.8 0.00 0.00 0.00 50 1017.2
20260508011931 19 74 1.6 8.0 0.00 0.00 0.00 50 1017.1
20260508011832 19 74 1.6 8.0 0.00 0.00 0.00 50 1017.1
20260508011730 19 74 3.2 9.7 0.00 0.00 0.00 50 1017.1
20260508011632 19 74 3.2 9.7 0.00 0.00 0.00 50 1017.1
20260508011531 19 74 4.8 11.3 0.00 0.00 0.00 50 1017.0
20260508011434 19 74 4.8 11.3 0.00 0.00 0.00 50 1017.1
20260508011330 19 74 4.8 12.9 0.00 0.00 0.00 50 1017.1
20260508011232 19 74 6.4 12.9 0.00 0.00 0.00 50 1017.1
20260508011132 19 74 6.4 12.9 0.00 0.00 0.00 49 1017.1
20260508011034 19 72 6.4 12.9 0.00 0.00 0.00 49 1017.1
20260508010930 19 81 6.4 12.9 0.00 0.00 0.00 49 1017.1
20260508010832 19 71 6.4 12.9 0.00 0.00 0.00 49 1017.2
20260508010730 19 77 6.4 12.9 0.00 0.00 0.00 49 1017.2
20260508010632 19 81 6.4 12.9 0.00 0.00 0.00 49 1017.2
20260508010531 19 72 6.4 12.9 0.00 0.00 0.00 49 1017.2
20260508010431 19 82 4.8 12.9 0.00 0.00 0.00 49 1017.2
20260508010330 19 78 4.8 11.3 0.00 0.00 0.00 49 1017.2
20260508010230 19 76 6.4 11.3 0.00 0.00 0.00 49 1017.2
20260508010132 19 77 6.4 11.3 0.00 0.00 0.00 48 1017.1
20260508010032 19 75 6.4 12.9 0.00 0.00 0.00 48 1017.2
20260508005930 19 78 6.4 12.9 0.00 0.00 0.00 48 1017.2
20260508005832 19 78 6.4 12.9 0.00 0.00 0.00 48 1017.2
20260508005731 19 83 6.4 12.9 0.00 0.00 0.00 48 1017.2
20260508005629 19 85 6.4 12.9 0.00 0.00 0.00 48 1017.2
20260508005531 19 84 6.4 12.9 0.00 0.00 0.00 48 1017.2
20260508005432 19 81 6.4 12.9 0.00 0.00 0.00 48 1017.3
20260508005332 19 82 4.8 12.9 0.00 0.00 0.00 48 1017.2
20260508005231 19 83 4.8 12.9 0.00 0.00 0.00 49 1017.2
20260508005131 18 79 4.8 12.9 0.00 0.00 0.00 49 1017.3
20260508005032 18 83 4.8 12.9 0.00 0.00 0.00 49 1017.2
20260508004931 18 91 4.8 12.9 0.00 0.00 0.00 49 1017.3
20260508004831 18 80 4.8 14.5 0.00 0.00 0.00 50 1017.4
20260508004732 18 78 6.4 14.5 0.00 0.00 0.00 50 1017.4
20260508004630 18 106 6.4 14.5 0.00 0.00 0.00 50 1017.5
20260508004531 18 107 8.0 14.5 0.00 0.00 0.00 50 1017.5
20260508004431 18 84 8.0 14.5 0.00 0.00 0.00 51 1017.5
20260508004330 18 83 8.0 14.5 0.00 0.00 0.00 52 1017.5
20260508004233 18 83 9.7 14.5 0.00 0.00 0.00 52 1017.5
20260508004132 18 80 9.7 14.5 0.00 0.00 0.00 52 1017.5
20260508004031 18 99 9.7 14.5 0.00 0.00 0.00 52 1017.5
20260508003932 18 72 11.3 14.5 0.00 0.00 0.00 52 1017.5
20260508003832 18 77 9.7 14.5 0.00 0.00 0.00 52 1017.5
20260508003731 18 73 9.7 14.5 0.00 0.00 0.00 52 1017.5
20260508003631 18 81 9.7 14.5 0.00 0.00 0.00 52 1017.6
20260508003530 18 83 9.7 14.5 0.00 0.00 0.00 52 1017.6
20260508003432 18 79 9.7 14.5 0.00 0.00 0.00 53 1017.6
20260508003331 18 89 9.7 14.5 0.00 0.00 0.00 53 1017.6
20260508003232 18 77 9.7 14.5 0.00 0.00 0.00 52 1017.6
20260508003132 18 74 8.0 14.5 0.00 0.00 0.00 52 1017.6
20260508003030 19 73 8.0 14.5 0.00 0.00 0.00 52 1017.6
20260508002931 19 85 6.4 12.9 0.00 0.00 0.00 52 1017.6
20260508002831 19 81 6.4 12.9 0.00 0.00 0.00 51 1017.6
20260508002730 19 72 6.4 12.9 0.00 0.00 0.00 51 1017.6
20260508002632 19 69 4.8 11.3 0.00 0.00 0.00 50 1017.6
20260508002532 19 68 4.8 11.3 0.00 0.00 0.00 49 1017.6
20260508002431 19 87 4.8 11.3 0.00 0.00 0.00 48 1017.6
20260508002333 19 72 4.8 11.3 0.00 0.00 0.00 48 1017.7
20260508002230 19 74 4.8 11.3 0.00 0.00 0.00 48 1017.5
20260508002131 19 81 4.8 11.3 0.00 0.00 0.00 48 1017.6
20260508002031 19 73 4.8 11.3 0.00 0.00 0.00 48 1017.6
20260508001930 19 73 4.8 11.3 0.00 0.00 0.00 48 1017.6
20260508001831 19 76 4.8 11.3 0.00 0.00 0.00 48 1017.6
20260508001730 19 76 4.8 11.3 0.00 0.00 0.00 48 1017.6
20260508001632 19 79 4.8 8.0 0.00 0.00 0.00 49 1017.5
20260508001530 19 82 4.8 8.0 0.00 0.00 0.00 48 1017.6
20260508001433 19 81 4.8 8.0 0.00 0.00 0.00 49 1017.6
20260508001331 19 80 4.8 8.0 0.00 0.00 0.00 49 1017.5
20260508001232 19 89 4.8 8.0 0.00 0.00 0.00 49 1017.5
20260508001130 19 72 4.8 8.0 0.00 0.00 0.00 49 1017.6
20260508001032 19 81 4.8 8.0 0.00 0.00 0.00 48 1017.6
20260508000930 18 82 4.8 6.4 0.00 0.00 0.00 48 1017.6
20260508000831 18 81 4.8 6.4 0.00 0.00 0.00 48 1017.6
20260508000730 18 78 4.8 6.4 0.00 0.00 0.00 48 1017.6
20260508000630 18 83 4.8 6.4 0.00 0.00 0.00 48 1017.7
20260508000533 18 71 3.2 6.4 0.00 0.00 0.00 48 1017.6
20260508000434 18 77 3.2 6.4 0.00 0.00 0.00 49 1017.7
20260508000330 18 87 3.2 6.4 0.00 0.00 0.00 49 1017.7
20260508000230 18 95 3.2 6.4 0.00 0.00 0.00 49 1017.7
20260508000131 18 78 3.2 6.4 0.00 0.00 0.00 49 1017.7
20260508000031 18 86 3.2 6.4 0.00 0.00 0.00 49 1017.8
20260507235931 18 101 3.2 6.4 0.00 0.00 0.00 49 1017.8
20260507235832 18 99 3.2 6.4 0.00 0.00 0.00 49 1017.7
20260507235731 18 85 3.2 6.4 0.00 0.00 0.00 49 1017.8
20260507235633 18 85 3.2 6.4 0.00 0.00 0.00 49 1017.9
20260507235530 18 85 3.2 6.4 0.00 0.00 0.00 50 1017.9
20260507235432 18 84 3.2 6.4 0.00 0.00 0.00 50 1017.9
20260507235331 18 84 3.2 6.4 0.00 0.00 0.00 50 1017.9
20260507235231 18 80 1.6 6.4 0.00 0.00 0.00 51 1017.8
20260507235131 18 76 1.6 6.4 0.00 0.00 0.00 51 1017.9
20260507235031 18 76 1.6 6.4 0.00 0.00 0.00 52 1017.9
20260507234931 18 74 1.6 6.4 0.00 0.00 0.00 52 1018.0
20260507234831 18 71 1.6 4.8 0.00 0.00 0.00 53 1018.0
20260507234732 18 70 1.6 4.8 0.00 0.00 0.00 53 1018.0
20260507234630 18 74 1.6 4.8 0.00 0.00 0.00 53 1018.0
20260507234530 18 74 1.6 4.8 0.00 0.00 0.00 53 1018.1
20260507234430 18 74 1.6 4.8 0.00 0.00 0.00 53 1018.0
20260507234330 18 74 1.6 4.8 0.00 0.00 0.00 53 1018.1
20260507234230 18 74 1.6 4.8 0.00 0.00 0.00 53 1018.1
20260507234131 18 74 1.6 4.8 0.00 0.00 0.00 53 1018.1
20260507234032 18 74 1.6 4.8 0.00 0.00 0.00 53 1018.2
20260507233931 18 73 1.6 4.8 0.00 0.00 0.00 54 1018.2
20260507233830 18 81 1.6 4.8 0.00 0.00 0.00 54 1018.1
20260507233736 18 82 1.6 4.8 0.00 0.00 0.00 54 1018.1
20260507233631 18 82 1.6 4.8 0.00 0.00 0.00 54 1018.1
20260507233531 18 82 1.6 4.8 0.00 0.00 0.00 54 1018.1
20260507233430 18 83 1.6 6.4 0.00 0.00 0.00 54 1018.1
20260507233332 18 84 1.6 6.4 0.00 0.00 0.00 54 1018.1
20260507233232 18 84 1.6 6.4 0.00 0.00 0.00 54 1018.1
20260507233131 18 84 3.2 6.4 0.00 0.00 0.00 53 1018.2
20260507233032 18 84 3.2 6.4 0.00 0.00 0.00 53 1018.2
20260507232931 18 84 3.2 6.4 0.00 0.00 0.00 53 1018.2
20260507232832 18 84 3.2 6.4 0.00 0.00 0.00 53 1018.2
20260507232730 18 84 4.8 6.4 0.00 0.00 0.00 53 1018.0
20260507232630 18 84 3.2 6.4 0.00 0.00 0.00 53 1018.1
20260507232529 18 84 3.2 6.4 0.00 0.00 0.00 54 1018.0
20260507232431 18 85 3.2 6.4 0.00 0.00 0.00 54 1018.0
20260507232332 18 79 3.2 6.4 0.00 0.00 0.00 54 1018.0
20260507232232 18 79 3.2 6.4 0.00 0.00 0.00 54 1018.0
20260507232131 18 77 3.2 6.4 0.00 0.00 0.00 54 1018.0
20260507232032 18 76 1.6 6.4 0.00 0.00 0.00 55 1018.0
20260507231930 18 74 1.6 6.4 0.00 0.00 0.00 55 1018.0
20260507231830 18 75 1.6 6.4 0.00 0.00 0.00 55 1018.0
20260507231732 18 74 1.6 4.8 0.00 0.00 0.00 55 1018.1
20260507231631 18 74 1.6 4.8 0.00 0.00 0.00 55 1018.1
20260507231532 18 74 1.6 4.8 0.00 0.00 0.00 55 1018.2
20260507231432 18 74 1.6 4.8 0.00 0.00 0.00 56 1018.1
20260507231330 18 74 1.6 4.8 0.00 0.00 0.00 55 1018.1
20260507231230 18 74 0.0 3.2 0.00 0.00 0.00 55 1018.2
20260507231132 18 74 0.0 3.2 0.00 0.00 0.00 55 1018.2
20260507231032 18 74 0.0 3.2 0.00 0.00 0.00 55 1018.1
20260507230931 18 74 0.0 3.2 0.00 0.00 0.00 55 1018.2
20260507230831 18 74 0.0 3.2 0.00 0.00 0.00 55 1018.2
20260507230733 18 74 0.0 0.0 0.00 0.00 0.00 55 1018.3
20260507230630 18 74 0.0 0.0 0.00 0.00 0.00 54 1018.2
20260507230529 18 74 0.0 0.0 0.00 0.00 0.00 54 1018.3
20260507230432 18 74 0.0 0.0 0.00 0.00 0.00 54 1018.3
20260507230331 18 74 0.0 0.0 0.00 0.00 0.00 54 1018.4
20260507230230 18 74 0.0 0.0 0.00 0.00 0.00 54 1018.3
20260507230131 18 74 0.0 0.0 0.00 0.00 0.00 54 1018.3
20260507230030 18 74 0.0 0.0 0.00 0.00 0.00 54 1018.3
20260507225933 18 74 0.0 0.0 0.00 0.00 0.00 54 1018.4
20260507225832 18 74 0.0 0.0 0.00 0.00 0.00 54 1018.4
20260507225731 18 74 0.0 0.0 0.00 0.00 0.00 55 1018.4
20260507225631 18 74 0.0 0.0 0.00 0.00 0.00 55 1018.4
20260507225532 18 74 0.0 0.0 0.00 0.00 0.00 55 1018.4
20260507225431 18 74 0.0 0.0 0.00 0.00 0.00 55 1018.4
20260507225330 18 74 0.0 1.6 0.00 0.00 0.00 55 1018.5
20260507225231 18 74 0.0 3.2 0.00 0.00 0.00 55 1018.5
20260507225133 18 74 0.0 3.2 0.00 0.00 0.00 55 1018.4
20260507225031 18 74 0.0 3.2 0.00 0.00 0.00 55 1018.5
20260507224929 18 74 0.0 3.2 0.00 0.00 0.00 55 1018.6
20260507224831 18 74 0.0 3.2 0.00 0.00 0.00 55 1018.5
20260507224730 18 74 0.0 3.2 0.00 0.00 0.00 55 1018.6
20260507224632 18 74 0.0 3.2 0.00 0.00 0.00 55 1018.6
20260507224530 18 74 0.0 3.2 0.00 0.00 0.00 55 1018.6
20260507224431 18 74 0.0 3.2 0.00 0.00 0.00 55 1018.5
20260507224331 18 74 0.0 3.2 0.00 0.00 0.00 54 1018.6
20260507224231 18 74 0.0 3.2 0.00 0.00 0.00 54 1018.6
20260507224130 18 74 0.0 3.2 0.00 0.00 0.00 54 1018.6
20260507224031 18 74 0.0 3.2 0.00 0.00 0.00 54 1018.6
20260507223930 18 74 0.0 1.6 0.00 0.00 0.00 53 1018.6
20260507223832 18 74 0.0 0.0 0.00 0.00 0.00 53 1018.6
20260507223732 18 74 0.0 0.0 0.00 0.00 0.00 53 1018.7
20260507223630 18 74 0.0 0.0 0.00 0.00 0.00 53 1018.7
20260507223532 18 74 0.0 0.0 0.00 0.00 0.00 53 1018.7
20260507223432 18 74 0.0 0.0 0.00 0.00 0.00 53 1018.7
20260507223331 18 74 0.0 1.6 0.00 0.00 0.00 53 1018.7
20260507223230 18 74 0.0 3.2 0.00 0.00 0.00 53 1018.7
20260507223132 18 74 0.0 4.8 0.00 0.00 0.00 53 1018.6
20260507223032 18 74 0.0 4.8 0.00 0.00 0.00 54 1018.7
20260507222930 18 74 1.6 4.8 0.00 0.00 0.00 53 1018.6
20260507222830 18 74 1.6 4.8 0.00 0.00 0.00 53 1018.6
20260507222730 18 74 1.6 4.8 0.00 0.00 0.00 53 1018.5
20260507222633 18 74 1.6 4.8 0.00 0.00 0.00 53 1018.5
20260507222530 18 74 1.6 4.8 0.00 0.00 0.00 53 1018.5
20260507222430 18 74 1.6 4.8 0.00 0.00 0.00 54 1018.5
20260507222331 18 74 1.6 4.8 0.00 0.00 0.00 53 1018.5
20260507222230 18 74 1.6 6.4 0.00 0.00 0.00 53 1018.5
20260507222137 18 74 1.6 6.4 0.00 0.00 0.00 53 1018.5
20260507222031 18 74 3.2 6.4 0.00 0.00 0.00 52 1018.5
20260507221930 18 74 3.2 6.4 0.00 0.00 0.00 52 1018.5
20260507221832 18 74 3.2 6.4 0.00 0.00 0.00 52 1018.5
20260507221730 18 74 3.2 6.4 0.00 0.00 0.00 51 1018.5
20260507221632 18 74 3.2 6.4 0.00 0.00 0.00 51 1018.5
20260507221530 18 74 3.2 6.4 0.00 0.00 0.00 51 1018.6
20260507221431 18 74 3.2 6.4 0.00 0.00 0.00 51 1018.6
20260507221330 18 76 3.2 6.4 0.00 0.00 0.00 51 1018.5
20260507221235 18 79 3.2 6.4 0.00 0.00 0.00 51 1018.5
20260507221129 18 74 1.6 6.4 0.00 0.00 0.00 51 1018.5
20260507221031 18 70 1.6 4.8 0.00 0.00 0.00 52 1018.6
20260507220931 18 70 1.6 4.8 0.00 0.00 0.00 52 1018.5
20260507220831 18 73 1.6 4.8 0.00 0.00 0.00 52 1018.6
20260507220730 18 70 0.0 4.8 0.00 0.00 0.00 52 1018.6
20260507220631 18 72 0.0 3.2 0.00 0.00 0.00 52 1018.6
20260507220530 18 72 0.0 3.2 0.00 0.00 0.00 52 1018.7
20260507220431 18 72 0.0 3.2 0.00 0.00 0.00 52 1018.6
20260507220331 18 72 0.0 3.2 0.00 0.00 0.00 52 1018.5
20260507220233 18 72 0.0 3.2 0.00 0.00 0.00 53 1018.6
20260507220131 18 72 0.0 3.2 0.00 0.00 0.00 53 1018.6
20260507220030 18 72 0.0 3.2 0.00 0.00 0.00 53 1018.6
20260507215930 18 72 0.0 3.2 0.00 0.00 0.00 53 1018.6
20260507215830 18 72 0.0 3.2 0.00 0.00 0.00 53 1018.6
20260507215730 18 72 0.0 3.2 0.00 0.00 0.00 53 1018.7
20260507215631 18 72 0.0 3.2 0.00 0.00 0.00 53 1018.6
20260507215530 18 72 0.0 3.2 0.00 0.00 0.00 53 1018.6
20260507215433 18 72 0.0 3.2 0.00 0.00 0.00 53 1018.7
20260507215330 18 72 0.0 4.8 0.00 0.00 0.00 53 1018.7
20260507215231 18 72 0.0 4.8 0.00 0.00 0.00 53 1018.6
20260507215130 18 72 0.0 4.8 0.00 0.00 0.00 53 1018.7
20260507215031 18 72 1.6 4.8 0.00 0.00 0.00 52 1018.6
20260507214930 18 72 1.6 4.8 0.00 0.00 0.00 52 1018.6
20260507214831 18 72 1.6 4.8 0.00 0.00 0.00 52 1018.7
20260507214731 18 72 1.6 6.4 0.00 0.00 0.00 52 1018.6
20260507214632 18 72 1.6 6.4 0.00 0.00 0.00 52 1018.6
20260507214530 18 72 1.6 6.4 0.00 0.00 0.00 52 1018.6
20260507214430 18 72 1.6 6.4 0.00 0.00 0.00 52 1018.7
20260507214331 18 72 1.6 6.4 0.00 0.00 0.00 52 1018.6
20260507214231 18 72 1.6 6.4 0.00 0.00 0.00 52 1018.7
20260507214131 18 72 1.6 6.4 0.00 0.00 0.00 52 1018.6
20260507214031 18 72 1.6 6.4 0.00 0.00 0.00 52 1018.6
20260507213930 18 72 1.6 6.4 0.00 0.00 0.00 52 1018.7
20260507213832 18 74 1.6 6.4 0.00 0.00 0.00 52 1018.6
20260507213731 18 75 0.0 4.8 0.00 0.00 0.00 52 1018.7
20260507213630 18 76 0.0 4.8 0.00 0.00 0.00 52 1018.7
20260507213531 18 76 0.0 3.2 0.00 0.00 0.00 52 1018.8
20260507213431 19 76 0.0 1.6 0.00 0.00 0.00 52 1018.9
20260507213332 19 76 0.0 1.6 0.00 0.00 0.00 51 1018.8
20260507213232 19 76 0.0 1.6 0.00 0.00 0.00 51 1018.8
20260507213130 19 76 0.0 1.6 0.00 0.00 0.00 51 1018.9
20260507213026 19 76 0.0 1.6 0.00 0.00 0.00 51 1018.9
20260507212926 19 76 0.0 1.6 0.00 0.00 0.00 51 1018.9
20260507212825 19 76 0.0 1.6 0.00 0.00 0.00 51 1018.9
20260507212726 19 76 0.0 1.6 0.00 0.00 0.00 51 1018.9
20260507212624 19 76 0.0 3.2 0.00 0.00 0.00 50 1019.0
20260507212522 19 76 0.0 3.2 0.00 0.00 0.00 50 1018.9
20260507212419 19 76 1.6 4.8 0.00 0.00 0.00 50 1018.9
20260507212315 19 76 1.6 6.4 0.00 0.00 0.00 50 1018.9
20260507212213 19 76 1.6 6.4 0.00 0.00 0.00 50 1018.9
20260507212112 19 76 1.6 6.4 0.00 0.00 0.00 50 1018.8
20260507212022 19 76 1.6 6.4 0.00 0.00 0.00 50 1018.8
20260507211913 19 76 3.2 6.4 0.00 0.00 0.00 50 1018.8
20260507211810 19 76 3.2 6.4 0.00 0.00 0.00 50 1018.7
20260507211705 19 76 3.2 6.4 0.00 0.00 0.00 49 1018.7
20260507211605 19 76 3.2 6.4 0.00 0.00 0.00 49 1018.7
20260507211507 19 76 1.6 6.4 0.00 0.00 0.00 49 1018.6
20260507211405 19 74 1.6 6.4 0.00 0.00 0.00 48 1018.6
20260507211304 19 74 1.6 4.8 0.00 0.00 0.00 48 1018.6
20260507211203 19 74 1.6 4.8 0.00 0.00 0.00 48 1018.5
20260507211103 19 74 1.6 4.8 0.00 0.00 0.00 48 1018.6
20260507211005 19 74 1.6 4.8 0.00 0.00 0.00 48 1018.5
20260507210904 19 74 1.6 4.8 0.00 0.00 0.00 48 1018.5
20260507210804 19 74 1.6 4.8 0.00 0.00 0.00 48 1018.5
20260507210705 19 74 1.6 4.8 0.00 0.00 0.00 47 1018.5
20260507210603 19 74 1.6 4.8 0.00 0.00 0.00 47 1018.5
20260507210504 19 74 1.6 4.8 0.00 0.00 0.00 47 1018.5
20260507210402 19 74 1.6 4.8 0.00 0.00 0.00 46 1018.6
20260507210304 19 74 1.6 4.8 0.00 0.00 0.00 46 1018.6
20260507210203 19 74 1.6 4.8 0.00 0.00 0.00 46 1018.6
20260507210006 19 74 0.0 4.8 0.00 0.00 0.00 46 1018.6
20260507205905 19 74 0.0 4.8 0.00 0.00 0.00 46 1018.6
20260507205803 19 74 0.0 4.8 0.00 0.00 0.00 46 1018.7
20260507205704 19 75 0.0 3.2 0.00 0.00 0.00 47 1018.5
20260507205603 19 74 0.0 0.0 0.00 0.00 0.00 47 1018.6
20260507205504 19 75 0.0 0.0 0.00 0.00 0.00 46 1018.7
20260507205404 19 75 0.0 0.0 0.00 0.00 0.00 46 1018.6
20260507205306 19 75 0.0 0.0 0.00 0.00 0.00 46 1018.6
20260507205200 19 74 0.0 0.0 0.00 0.00 0.00 46 1018.6
20260507205104 19 75 0.0 0.0 0.00 0.00 0.00 46 1018.7
20260507204954 19 75 0.0 4.8 0.00 0.00 0.00 46 1018.7
20260507204853 19 75 1.6 4.8 0.00 0.00 0.00 46 1018.7
20260507204753 19 75 1.6 4.8 0.00 0.00 0.00 46 1018.6
20260507204653 19 75 1.6 4.8 0.00 0.00 0.00 46 1018.7
20260507204546 20 75 1.6 4.8 0.00 0.00 0.00 45 1018.7
20260507204447 20 75 1.6 4.8 0.00 0.00 0.00 44 1018.7
20260507204349 20 75 1.6 4.8 0.00 0.00 0.00 43 1018.6
20260507204247 20 75 1.6 4.8 0.00 0.00 0.00 41 1018.6
20260507204148 20 75 1.6 4.8 0.00 0.00 0.00 41 1018.6
20260507204044 20 75 1.6 4.8 0.00 0.00 0.00 41 1018.6
20260507203940 20 75 1.6 4.8 0.00 0.00 0.00 41 1018.5
20260507203841 20 75 1.6 4.8 0.00 0.00 0.00 41 1018.5
20260507203741 20 76 1.6 4.8 0.00 0.00 0.00 42 1018.5
20260507203642 20 75 1.6 6.4 0.00 0.00 0.00 42 1018.5
20260507203538 20 75 1.6 6.4 0.00 0.00 0.00 42 1018.4
20260507203436 20 75 1.6 8.0 0.00 0.00 0.00 42 1018.3
20260507203334 20 75 3.2 8.0 0.00 0.00 0.00 42 1018.4
20260507203236 20 75 3.2 8.0 0.00 0.00 0.00 43 1018.4
20260507203134 20 75 3.2 8.0 0.00 0.00 0.00 43 1018.5
20260507203037 20 75 4.8 8.0 0.00 0.00 0.00 43 1018.5
20260507202932 20 75 4.8 8.0 0.00 0.00 0.00 43 1018.5
20260507202834 20 75 4.8 8.0 0.00 0.00 0.00 43 1018.5
20260507202732 20 73 4.8 8.0 0.00 0.00 0.00 43 1018.5
20260507202632 20 76 4.8 8.0 0.00 0.00 0.00 43 1018.4
20260507202534 20 74 4.8 8.0 0.00 0.00 0.00 43 1018.4
20260507202432 20 67 4.8 8.0 0.00 0.00 0.00 43 1018.3
20260507202330 20 70 4.8 9.7 0.00 0.00 0.00 43 1018.4
20260507202232 20 67 4.8 11.3 0.00 0.00 0.00 42 1018.3
20260507202130 20 71 4.8 11.3 0.00 0.00 0.00 42 1018.4
20260507202033 20 83 4.8 11.3 0.00 0.00 0.00 43 1018.4
20260507201931 20 83 4.8 11.3 0.00 0.00 0.00 43 1018.4
20260507201834 20 71 4.8 11.3 0.00 0.00 0.00 44 1018.3
20260507201732 20 70 6.4 11.3 0.00 0.00 0.00 45 1018.4
20260507201632 20 70 6.4 11.3 0.00 0.00 0.00 45 1018.4
20260507201532 20 76 6.4 11.3 0.00 0.00 0.00 45 1018.3
20260507201433 20 70 6.4 11.3 0.00 0.00 0.00 44 1018.3
20260507201330 20 76 6.4 11.3 0.00 0.00 0.00 44 1018.3
20260507201231 20 67 6.4 11.3 0.00 0.00 0.00 43 1018.3
20260507201131 20 72 6.4 11.3 0.00 0.00 0.00 43 1018.2
20260507201044 20 79 6.4 11.3 0.00 0.00 0.00 43 1018.2
20260507200932 20 74 4.8 11.3 0.00 0.00 0.00 43 1018.3
20260507200833 20 77 4.8 11.3 0.00 0.00 0.00 42 1018.2
20260507200730 20 91 4.8 11.3 0.00 0.00 0.00 41 1018.3
20260507200632 19 75 4.8 11.3 0.00 0.00 0.00 41 1018.2
20260507200531 19 72 4.8 11.3 0.00 0.00 0.00 42 1018.2
20260507200431 19 75 4.8 11.3 0.00 0.00 0.00 42 1018.3
20260507200332 19 76 4.8 11.3 0.00 0.00 0.00 43 1018.2
20260507200230 19 77 3.2 8.0 0.00 0.00 0.00 43 1018.2
20260507200133 19 80 3.2 8.0 0.00 0.00 0.00 43 1018.2
20260507200050 19 79 3.2 8.0 0.00 0.00 0.00 43 1018.2
20260507195932 19 78 3.2 6.4 0.00 0.00 0.00 43 1018.2
20260507195834 19 79 3.2 6.4 0.00 0.00 0.00 43 1018.2
20260507195732 19 76 3.2 6.4 0.00 0.00 0.00 44 1018.3
20260507195631 19 72 3.2 6.4 0.00 0.00 0.00 44 1018.4
20260507195530 19 72 3.2 6.4 0.00 0.00 0.00 44 1018.4
20260507195430 19 73 3.2 6.4 0.00 0.00 0.00 44 1018.4
20260507195334 19 73 3.2 6.4 0.00 0.00 0.00 44 1018.4
20260507195231 19 73 3.2 6.4 0.00 0.00 0.00 44 1018.5
20260507195132 19 73 3.2 6.4 0.00 0.00 0.00 44 1018.5
20260507195030 19 73 3.2 6.4 0.00 0.00 0.00 44 1018.5
20260507194931 19 73 3.2 6.4 0.00 0.00 0.00 44 1018.5
20260507194833 19 73 3.2 6.4 0.00 0.00 0.00 44 1018.6
20260507194731 19 74 3.2 6.4 0.00 0.00 0.00 44 1018.6
20260507194631 19 75 3.2 6.4 0.00 0.00 0.00 44 1018.6
20260507194533 19 74 3.2 6.4 0.00 0.00 0.00 44 1018.6
20260507194432 19 75 3.2 4.8 0.00 0.00 0.00 45 1018.6
20260507194333 19 74 3.2 4.8 0.00 0.00 0.00 45 1018.6
20260507194232 19 75 3.2 4.8 0.00 0.00 0.00 45 1018.6
20260507194131 19 74 3.2 4.8 0.00 0.00 0.00 45 1018.6
20260507194031 19 74 3.2 4.8 0.00 0.00 0.00 45 1018.6
20260507193931 19 74 3.2 4.8 0.00 0.00 0.00 44 1018.6
20260507193834 19 76 1.6 4.8 0.00 0.00 0.00 44 1018.5
20260507193732 19 77 1.6 4.8 0.00 0.00 0.00 44 1018.7
20260507193631 19 77 1.6 4.8 0.00 0.00 0.00 44 1018.5
20260507193531 19 78 1.6 4.8 0.00 0.00 0.00 44 1018.6
20260507193430 19 79 1.6 4.8 0.00 0.00 0.00 44 1018.6
20260507193331 19 79 0.0 3.2 0.00 0.00 0.00 45 1018.6
20260507193249 19 79 0.0 3.2 0.00 0.00 0.00 45 1018.5
20260507193131 19 79 0.0 3.2 0.00 0.00 0.00 45 1018.6
20260507193032 19 79 0.0 3.2 0.00 0.00 0.00 45 1018.6
20260507192932 19 79 0.0 3.2 0.00 0.00 0.00 45 1018.5
20260507192833 19 79 0.0 3.2 0.00 0.00 0.00 45 1018.6
20260507192731 19 79 0.0 4.8 0.00 0.00 0.00 45 1018.5
20260507192632 19 79 1.6 4.8 0.00 0.00 0.00 45 1018.5
20260507192531 19 79 1.6 4.8 0.00 0.00 0.00 45 1018.6
20260507192432 19 79 1.6 6.4 0.00 0.00 0.00 46 1018.5
20260507192332 19 79 1.6 6.4 0.00 0.00 0.00 46 1018.5
20260507192226 19 79 3.2 6.4 0.00 0.00 0.00 46 1018.5
20260507192128 19 79 3.2 6.4 0.00 0.00 0.00 46 1018.5
20260507192028 19 79 3.2 8.0 0.00 0.00 0.00 46 1018.6
20260507191927 19 79 4.8 8.0 0.00 0.00 0.00 46 1018.5
20260507191825 19 79 4.8 12.9 0.00 0.00 0.00 47 1018.6
20260507191718 19 79 4.8 12.9 0.00 0.00 0.00 47 1018.5
20260507191619 19 79 6.4 12.9 0.00 0.00 0.00 47 1018.6
20260507191524 19 81 6.4 12.9 0.00 0.00 0.00 48 1018.6
20260507191424 19 81 6.4 12.9 0.00 0.00 0.00 49 1018.6
20260507191318 19 80 6.4 12.9 0.00 0.00 0.00 49 1018.7
20260507191219 19 80 6.4 12.9 0.00 0.00 0.00 50 1018.7
20260507191120 19 96 6.4 12.9 0.00 0.00 0.00 50 1018.6
20260507191018 19 80 6.4 12.9 0.00 0.00 0.00 50 1018.6
20260507190920 19 81 6.4 12.9 0.00 0.00 0.00 50 1018.7
20260507190835 19 79 6.4 12.9 0.00 0.00 0.00 49 1018.7
20260507190720 19 79 6.4 12.9 0.00 0.00 0.00 48 1018.7
20260507190619 19 74 6.4 11.3 0.00 0.00 0.00 48 1018.7
20260507190518 19 76 6.4 11.3 0.00 0.00 0.00 47 1018.6
20260507190418 19 87 6.4 11.3 0.00 0.00 0.00 46 1018.6
20260507190319 19 78 6.4 11.3 0.00 0.00 0.00 47 1018.7
20260507190218 19 79 6.4 11.3 0.00 0.00 0.00 47 1018.7
20260507190119 19 78 6.4 11.3 0.00 0.00 0.00 48 1018.7
20260507190018 19 74 6.4 11.3 0.00 0.00 0.00 48 1018.8
20260507185920 19 74 6.4 11.3 0.00 0.00 0.00 49 1018.8
20260507185818 19 79 6.4 11.3 0.00 0.00 0.00 49 1018.8
20260507185718 19 80 6.4 9.7 0.00 0.00 0.00 49 1018.9
20260507185618 19 76 4.8 8.0 0.00 0.00 0.00 49 1018.8
20260507185520 19 73 4.8 8.0 0.00 0.00 0.00 49 1018.9
20260507185420 19 76 3.2 8.0 0.00 0.00 0.00 49 1018.8
20260507185316 19 73 3.2 8.0 0.00 0.00 0.00 49 1018.8
20260507185217 19 71 3.2 8.0 0.00 0.00 0.00 49 1018.9
20260507185117 19 77 3.2 8.0 0.00 0.00 0.00 49 1018.9
20260507185017 19 75 3.2 8.0 0.00 0.00 0.00 49 1018.8
20260507184917 19 70 3.2 8.0 0.00 0.00 0.00 49 1018.8
20260507184818 19 71 3.2 8.0 0.00 0.00 0.00 49 1018.8
20260507184717 19 71 3.2 8.0 0.00 0.00 0.00 49 1018.8
20260507184619 19 72 3.2 8.0 0.00 0.00 0.00 49 1018.8
20260507184516 19 72 3.2 8.0 0.00 0.00 0.00 49 1018.9
20260507184417 19 72 3.2 8.0 0.00 0.00 0.00 48 1018.8
20260507184317 19 72 3.2 8.0 0.00 0.00 0.00 48 1018.8
20260507184231 19 73 3.2 8.0 0.00 0.00 0.00 48 1018.7
20260507184116 19 68 3.2 6.4 0.00 0.00 0.00 48 1018.7
20260507184026 19 68 3.2 6.4 0.00 0.00 0.00 48 1018.7
20260507183924 19 68 3.2 6.4 0.00 0.00 0.00 48 1018.7
20260507183816 19 63 3.2 8.0 0.00 0.00 0.00 49 1018.7
20260507183717 19 63 3.2 8.0 0.00 0.00 0.00 49 1018.8
20260507183616 19 72 3.2 8.0 0.00 0.00 0.00 50 1018.7
20260507183518 19 50 4.8 11.3 0.00 0.00 0.00 50 1018.7
20260507183412 19 75 4.8 11.3 0.00 0.00 0.00 50 1018.7
20260507183313 19 76 4.8 11.3 0.00 0.00 0.00 50 1018.7
20260507183212 19 76 4.8 11.3 0.00 0.00 0.00 50 1018.7
20260507183113 19 80 4.8 11.3 0.00 0.00 0.00 50 1018.8
20260507183012 19 76 4.8 11.3 0.00 0.00 0.00 50 1018.7
20260507182915 19 74 3.2 11.3 0.00 0.00 0.00 50 1018.7
20260507182812 19 76 3.2 11.3 0.00 0.00 0.00 50 1018.7
20260507182713 19 81 3.2 11.3 0.00 0.00 0.00 50 1018.6
20260507182614 19 78 1.6 11.3 0.00 0.00 0.00 50 1018.6
20260507182512 20 78 1.6 11.3 0.00 0.00 0.00 50 1018.7
20260507182413 20 82 1.6 6.4 0.00 0.00 0.00 49 1018.6
20260507182312 20 72 1.6 8.0 0.00 0.00 0.00 50 1018.6
20260507182212 20 64 1.6 8.0 0.00 0.00 0.00 50 1018.6
20260507182113 20 64 1.6 8.0 0.00 0.00 0.00 51 1018.5
20260507182012 20 64 1.6 8.0 0.00 0.00 0.00 51 1018.5
20260507181912 20 64 3.2 8.0 0.00 0.00 0.00 51 1018.6
20260507181812 20 64 3.2 8.0 0.00 0.00 0.00 51 1018.5
20260507181713 20 64 3.2 8.0 0.00 0.00 0.00 51 1018.6
20260507181614 20 64 3.2 8.0 0.00 0.00 0.00 51 1018.6
20260507181507 20 64 1.6 8.0 0.00 0.00 0.00 51 1018.6
20260507181408 20 63 1.6 8.0 0.00 0.00 0.00 51 1018.6
20260507181308 20 67 1.6 6.4 0.00 0.00 0.00 51 1018.6
20260507181209 20 69 1.6 6.4 0.00 0.00 0.00 51 1018.6
20260507181109 20 73 0.0 4.8 0.00 0.00 0.00 50 1018.6
20260507181009 20 74 0.0 4.8 0.00 0.00 0.00 50 1018.6
20260507180909 20 73 0.0 4.8 0.00 0.00 0.00 50 1018.6
20260507180810 20 72 0.0 3.2 0.00 0.00 0.00 50 1018.6
20260507180710 20 72 0.0 3.2 0.00 0.00 0.00 50 1018.7
20260507180609 20 72 1.6 3.2 0.00 0.00 0.00 50 1018.7
20260507180509 20 72 1.6 3.2 0.00 0.00 0.00 50 1018.6
20260507180409 20 72 1.6 3.2 0.00 0.00 0.00 50 1018.7
20260507180309 20 72 1.6 3.2 0.00 0.00 0.00 50 1018.7
20260507180208 20 72 1.6 3.2 0.00 0.00 0.00 50 1018.7
20260507180107 20 72 1.6 3.2 0.00 0.00 0.00 50 1018.7
20260507180022 20 72 1.6 3.2 0.00 0.00 0.00 50 1018.7
20260507175909 20 72 1.6 3.2 0.00 0.00 0.00 50 1018.7
20260507175808 20 72 1.6 3.2 0.00 0.00 0.00 50 1018.7
20260507175710 20 72 1.6 3.2 0.00 0.00 0.00 50 1018.7
20260507175604 20 72 0.0 3.2 0.00 0.00 0.00 50 1018.6
20260507175504 20 72 0.0 3.2 0.00 0.00 0.00 50 1018.6
20260507175405 20 72 0.0 3.2 0.00 0.00 0.00 50 1018.7
20260507175307 20 72 0.0 3.2 0.00 0.00 0.00 49 1018.6
20260507175204 20 72 1.6 3.2 0.00 0.00 0.00 49 1018.6
20260507175106 20 72 1.6 3.2 0.00 0.00 0.00 49 1018.6
20260507175005 20 72 1.6 4.8 0.00 0.00 0.00 49 1018.5
20260507174910 20 72 1.6 4.8 0.00 0.00 0.00 49 1018.5
20260507174804 20 72 1.6 6.4 0.00 0.00 0.00 49 1018.6
20260507174704 20 72 3.2 6.4 0.00 0.00 0.00 49 1018.6
20260507174604 20 72 3.2 6.4 0.00 0.00 0.00 49 1018.6
20260507174504 20 72 3.2 6.4 0.00 0.00 0.00 49 1018.6
20260507174408 20 72 3.2 6.4 0.00 0.00 0.00 49 1018.6
20260507174306 20 72 3.2 6.4 0.00 0.00 0.00 49 1018.6
20260507174205 20 72 3.2 6.4 0.00 0.00 0.00 49 1018.5
20260507174102 20 72 3.2 6.4 0.00 0.00 0.00 50 1018.5
20260507174004 20 73 3.2 6.4 0.00 0.00 0.00 49 1018.5
20260507173907 20 72 3.2 6.4 0.00 0.00 0.00 49 1018.5
20260507173804 20 64 1.6 4.8 0.00 0.00 0.00 49 1018.5
20260507173702 20 62 1.6 4.8 0.00 0.00 0.00 49 1018.5
20260507173604 20 60 1.6 4.8 0.00 0.00 0.00 49 1018.4
20260507173505 20 60 1.6 4.8 0.00 0.00 0.00 49 1018.5
20260507173404 20 58 1.6 4.8 0.00 0.00 0.00 49 1018.6
20260507173313 20 54 0.0 4.8 0.00 0.00 0.00 49 1018.5
20260507173204 20 52 0.0 4.8 0.00 0.00 0.00 48 1018.5
20260507173103 20 51 0.0 4.8 0.00 0.00 0.00 48 1018.4
20260507173006 20 51 1.6 4.8 0.00 0.00 0.00 48 1018.5
20260507172905 21 52 1.6 4.8 0.00 0.00 0.00 48 1018.5
20260507172804 21 51 1.6 3.2 0.00 0.00 0.00 48 1018.5
20260507172705 21 51 1.6 3.2 0.00 0.00 0.00 48 1018.5
20260507172617 21 51 1.6 3.2 0.00 0.00 0.00 48 1018.5
20260507172529 21 51 1.6 3.2 0.00 0.00 0.00 48 1018.6
20260507172403 21 51 1.6 3.2 0.00 0.00 0.00 48 1018.6
20260507172306 21 51 1.6 3.2 0.00 0.00 0.00 48 1018.7
20260507172202 21 51 1.6 3.2 0.00 0.00 0.00 48 1018.6
20260507172102 21 51 1.6 3.2 0.00 0.00 0.00 47 1018.6
20260507172003 21 51 1.6 3.2 0.00 0.00 0.00 47 1018.7
20260507171905 21 348 1.6 3.2 0.00 0.00 0.00 47 1018.7
20260507171803 21 348 1.6 3.2 0.00 0.00 0.00 48 1018.7
20260507171714 21 348 1.6 3.2 0.00 0.00 0.00 48 1018.7
20260507171610 21 338 1.6 3.2 0.00 0.00 0.00 48 1018.7
20260507171504 21 338 0.0 3.2 0.00 0.00 0.00 48 1018.7
20260507171402 21 338 0.0 3.2 0.00 0.00 0.00 48 1018.7
20260507171302 21 338 0.0 3.2 0.00 0.00 0.00 48 1018.8
20260507171203 21 289 0.0 1.6 0.00 0.00 0.00 48 1018.8
20260507171106 21 288 0.0 1.6 0.00 0.00 0.00 48 1018.7
20260507171005 21 288 0.0 1.6 0.00 0.00 0.00 48 1018.7
20260507170914 21 288 0.0 1.6 0.00 0.00 0.00 48 1018.6
20260507170802 21 288 0.0 1.6 0.00 0.00 0.00 48 1018.7
20260507170707 21 288 0.0 1.6 0.00 0.00 0.00 48 1018.7
20260507170603 21 288 0.0 1.6 0.00 0.00 0.00 48 1018.6
20260507170518 21 288 0.0 1.6 0.00 0.00 0.00 48 1018.6
20260507170402 21 288 0.0 1.6 0.00 0.00 0.00 49 1018.5
20260507170305 21 287 0.0 0.0 0.00 0.00 0.00 49 1018.6
20260507170202 21 287 0.0 0.0 0.00 0.00 0.00 49 1018.5
20260507170104 21 287 0.0 0.0 0.00 0.00 0.00 48 1018.5
20260507170003 21 287 0.0 0.0 0.00 0.00 0.00 48 1018.5
20260507165903 21 287 0.0 0.0 0.00 0.00 0.00 48 1018.5
20260507165803 21 287 0.0 0.0 0.00 0.00 0.00 48 1018.5
20260507165703 21 287 0.0 0.0 0.00 0.00 0.00 49 1018.5
20260507165603 21 287 0.0 0.0 0.00 0.00 0.00 49 1018.3
20260507165507 21 287 0.0 1.6 0.00 0.00 0.00 49 1018.3
20260507165403 21 287 0.0 1.6 0.00 0.00 0.00 49 1018.4
20260507165306 21 287 0.0 1.6 0.00 0.00 0.00 49 1018.4
20260507165204 21 287 0.0 1.6 0.00 0.00 0.00 49 1018.3
20260507165104 21 287 0.0 1.6 0.00 0.00 0.00 49 1018.4
20260507165004 21 287 0.0 1.6 0.00 0.00 0.00 48 1018.4
20260507164903 21 287 0.0 3.2 0.00 0.00 0.00 48 1018.4
20260507164804 21 287 0.0 3.2 0.00 0.00 0.00 49 1018.5
20260507164706 21 287 0.0 3.2 0.00 0.00 0.00 48 1018.5
20260507164602 21 287 0.0 3.2 0.00 0.00 0.00 48 1018.5
20260507164504 21 287 0.0 3.2 0.00 0.00 0.00 48 1018.5
20260507164402 21 287 0.0 3.2 0.00 0.00 0.00 49 1018.4
20260507164303 21 287 1.6 3.2 0.00 0.00 0.00 49 1018.5
20260507164206 21 287 1.6 3.2 0.00 0.00 0.00 49 1018.5
20260507164104 21 287 1.6 3.2 0.00 0.00 0.00 49 1018.5
20260507164005 21 287 1.6 3.2 0.00 0.00 0.00 49 1018.5
20260507163904 21 286 1.6 3.2 0.00 0.00 0.00 48 1018.5
20260507163804 21 286 1.6 3.2 0.00 0.00 0.00 48 1018.6
20260507163702 21 286 1.6 3.2 0.00 0.00 0.00 48 1018.6
20260507163603 21 286 1.6 3.2 0.00 0.00 0.00 48 1018.5
20260507163504 21 286 1.6 3.2 0.00 0.00 0.00 48 1018.4
20260507163404 21 286 1.6 3.2 0.00 0.00 0.00 49 1018.5
20260507163304 21 286 1.6 3.2 0.00 0.00 0.00 49 1018.4
20260507163204 21 286 1.6 3.2 0.00 0.00 0.00 49 1018.4
20260507163104 21 286 1.6 3.2 0.00 0.00 0.00 49 1018.3
20260507163007 21 286 1.6 3.2 0.00 0.00 0.00 49 1018.3
20260507162904 21 286 1.6 3.2 0.00 0.00 0.00 49 1018.4
20260507162804 21 286 1.6 3.2 0.00 0.00 0.00 49 1018.5
20260507162704 21 286 1.6 4.8 0.00 0.00 0.00 49 1018.4
20260507162611 21 286 1.6 4.8 0.00 0.00 0.00 49 1018.4
20260507162505 21 286 1.6 4.8 0.00 0.00 0.00 49 1018.4
20260507162404 21 286 1.6 4.8 0.00 0.00 0.00 50 1018.3
20260507162307 21 286 1.6 4.8 0.00 0.00 0.00 50 1018.3
20260507162203 21 286 1.6 4.8 0.00 0.00 0.00 50 1018.4
20260507162103 21 286 1.6 4.8 0.00 0.00 0.00 50 1018.3
20260507162006 21 286 1.6 4.8 0.00 0.00 0.00 50 1018.4
20260507161904 21 286 1.6 4.8 0.00 0.00 0.00 50 1018.4
20260507161804 21 286 1.6 4.8 0.00 0.00 0.00 50 1018.3
20260507161703 21 286 1.6 4.8 0.00 0.00 0.00 50 1018.3
20260507161604 21 286 1.6 4.8 0.00 0.00 0.00 50 1018.3
20260507161507 22 286 1.6 4.8 0.00 0.00 0.00 50 1018.2
20260507161404 22 286 1.6 4.8 0.00 0.00 0.00 50 1018.3
20260507161302 22 286 1.6 4.8 0.00 0.00 0.00 50 1018.3
20260507161203 22 286 1.6 4.8 0.00 0.00 0.00 50 1018.3
20260507161106 22 286 1.6 4.8 0.00 0.00 0.00 50 1018.3
20260507161001 22 286 1.6 4.8 0.00 0.00 0.00 50 1018.3
20260507160902 22 286 1.6 4.8 0.00 0.00 0.00 50 1018.3
20260507160801 22 286 1.6 4.8 0.00 0.00 0.00 50 1018.4
20260507160701 22 286 1.6 6.4 0.00 0.00 0.00 49 1018.5
20260507160558 22 286 1.6 6.4 0.00 0.00 0.00 49 1018.5
20260507160458 22 286 1.6 6.4 0.00 0.00 0.00 49 1018.4
20260507160356 22 286 3.2 6.4 0.00 0.00 0.00 49 1018.5
20260507160255 22 286 3.2 6.4 0.00 0.00 0.00 49 1018.5
20260507160153 22 286 1.6 6.4 0.00 0.00 0.00 49 1018.4
20260507160052 22 286 3.2 6.4 0.00 0.00 0.00 49 1018.5
20260507155951 22 286 3.2 6.4 0.00 0.00 0.00 49 1018.5
20260507155851 22 285 1.6 6.4 0.00 0.00 0.00 48 1018.4
20260507155750 22 284 1.6 6.4 0.00 0.00 0.00 48 1018.5
20260507155653 22 262 1.6 4.8 0.00 0.00 0.00 48 1018.5
20260507155551 22 262 1.6 4.8 0.00 0.00 0.00 48 1018.5
20260507155502 22 259 1.6 4.8 0.00 0.00 0.00 48 1018.4
20260507155348 22 257 1.6 4.8 0.00 0.00 0.00 48 1018.4
20260507155244 22 252 1.6 4.8 0.00 0.00 0.00 48 1018.4
20260507155146 22 251 1.6 4.8 0.00 0.00 0.00 48 1018.3
20260507155044 22 251 1.6 4.8 0.00 0.00 0.00 48 1018.2
20260507154942 22 251 1.6 4.8 0.00 0.00 0.00 48 1018.2
20260507154843 22 251 1.6 4.8 0.00 0.00 0.00 48 1018.2
20260507154742 22 251 1.6 4.8 0.00 0.00 0.00 48 1018.2
20260507154640 22 251 1.6 4.8 0.00 0.00 0.00 49 1018.1
20260507154541 22 250 1.6 4.8 0.00 0.00 0.00 49 1018.1
20260507154442 22 250 1.6 4.8 0.00 0.00 0.00 48 1018.1
20260507154339 22 250 1.6 4.8 0.00 0.00 0.00 48 1018.1
20260507154238 22 250 1.6 4.8 0.00 0.00 0.00 48 1018.1
20260507154138 22 250 1.6 4.8 0.00 0.00 0.00 48 1018.2
20260507154032 22 250 1.6 4.8 0.00 0.00 0.00 48 1018.2
20260507154016 22 250 1.6 4.8 0.00 0.00 0.00 48 1018.2
20260507153933 22 250 1.6 4.8 0.00 0.00 0.00 48 1018.2
20260507153832 22 250 1.6 4.8 0.00 0.00 0.00 48 1018.3
20260507153730 22 250 1.6 4.8 0.00 0.00 0.00 49 1018.3
20260507153630 22 249 1.6 4.8 0.00 0.00 0.00 48 1018.3
20260507153530 22 249 1.6 4.8 0.00 0.00 0.00 48 1018.3
20260507153439 22 248 3.2 9.7 0.00 0.00 0.00 47 1018.3
20260507153431 22 249 3.2 4.8 0.00 0.00 0.00 48 1018.2
20260507153408 22 248 3.2 9.7 0.00 0.00 0.00 48 1018.3
20260507153331 22 249 3.2 4.8 0.00 0.00 0.00 48 1018.3
20260507153231 22 248 3.2 9.7 0.00 0.00 0.00 47 1018.3
20260507153131 22 248 3.2 9.7 0.00 0.00 0.00 48 1018.3
20260507153030 22 249 3.2 9.7 0.00 0.00 0.00 48 1018.3
20260507152931 22 235 3.2 9.7 0.00 0.00 0.00 47 1018.3
20260507152850 22 224 4.8 9.7 0.00 0.00 0.00 46 1018.4
20260507152835 22 234 3.2 9.7 0.00 0.00 0.00 47 1018.3
20260507152631 22 229 4.8 9.7 0.00 0.00 0.00 47 1018.3
20260507152529 22 229 4.8 9.7 0.00 0.00 0.00 47 1018.3
20260507152430 22 228 4.8 9.7 0.00 0.00 0.00 47 1018.4
20260507152329 22 224 4.8 9.7 0.00 0.00 0.00 46 1018.4
20260507152324 22 266 4.8 8.0 0.00 0.00 0.00 43 1018.5
20260507152231 22 212 3.2 8.0 0.00 0.00 0.00 46 1018.5
20260507152130 22 262 3.2 8.0 0.00 0.00 0.00 45 1018.5
20260507152030 22 263 4.8 8.0 0.00 0.00 0.00 45 1018.4
20260507151930 22 264 4.8 8.0 0.00 0.00 0.00 44 1018.5
20260507151832 22 266 4.8 8.0 0.00 0.00 0.00 43 1018.5
20260507151735 23 278 4.8 8.0 0.00 0.00 0.00 43 1018.4
20260507151627 23 237 4.8 8.0 0.00 0.00 0.00 43 1018.5
20260507151526 23 229 4.8 8.0 0.00 0.00 0.00 43 1018.5
20260507151426 23 205 4.8 8.0 0.00 0.00 0.00 43 1018.4
20260507151326 23 204 4.8 8.0 0.00 0.00 0.00 43 1018.3
20260507151230 23 204 4.8 8.0 0.00 0.00 0.00 44 1018.3
20260507151119 23 222 4.8 8.0 0.00 0.00 0.00 44 1018.4
20260507151020 23 222 4.8 8.0 0.00 0.00 0.00 45 1018.4
20260507150922 23 222 3.2 8.0 0.00 0.00 0.00 45 1018.4
20260507150818 23 234 3.2 8.0 0.00 0.00 0.00 45 1018.5
20260507150725 23 274 4.8 8.0 0.00 0.00 0.00 45 1018.5
20260507150613 23 268 4.8 8.0 0.00 0.00 0.00 45 1018.5
20260507150514 23 214 4.8 8.0 0.00 0.00 0.00 45 1018.4
20260507150412 23 211 4.8 8.0 0.00 0.00 0.00 45 1018.5
20260507150314 23 211 4.8 11.3 0.00 0.00 0.00 44 1018.6
20260507150214 23 211 4.8 11.3 0.00 0.00 0.00 43 1018.5
20260507150109 23 214 4.8 14.5 0.00 0.00 0.00 43 1018.5
20260507150007 23 247 6.4 14.5 0.00 0.00 0.00 43 1018.5
20260507145909 23 245 6.4 14.5 0.00 0.00 0.00 42 1018.5
20260507145808 23 253 6.4 14.5 0.00 0.00 0.00 41 1018.5
20260507145707 23 224 6.4 14.5 0.00 0.00 0.00 40 1018.4
20260507145602 23 220 6.4 14.5 0.00 0.00 0.00 40 1018.5
20260507145504 23 237 6.4 14.5 0.00 0.00 0.00 39 1018.5
20260507145306 23 237 6.4 14.5 0.00 0.00 0.00 38 1018.5
20260507145203 23 223 6.4 14.5 0.00 0.00 0.00 40 1018.5
20260507145103 23 227 6.4 12.9 0.00 0.00 0.00 39 1018.5
20260507145007 23 188 6.4 12.9 0.00 0.00 0.00 39 1018.5
20260507144904 23 268 6.4 12.9 0.00 0.00 0.00 41 1018.4
20260507144804 23 232 6.4 12.9 0.00 0.00 0.00 42 1018.4
20260507144703 23 230 6.4 12.9 0.00 0.00 0.00 43 1018.4
20260507144605 23 268 6.4 12.9 0.00 0.00 0.00 43 1018.3
20260507144504 23 237 6.4 12.9 0.00 0.00 0.00 42 1018.3
20260507144404 23 255 6.4 12.9 0.00 0.00 0.00 41 1018.3
20260507144303 24 207 8.0 12.9 0.00 0.00 0.00 42 1018.3
20260507144203 24 257 8.0 12.9 0.00 0.00 0.00 41 1018.3
20260507144108 23 276 8.0 12.9 0.00 0.00 0.00 41 1018.3
20260507144004 23 280 8.0 12.9 0.00 0.00 0.00 41 1018.3
20260507143902 24 222 8.0 12.9 0.00 0.00 0.00 41 1018.4
20260507143803 24 235 8.0 12.9 0.00 0.00 0.00 41 1018.4
20260507143703 24 303 8.0 12.9 0.00 0.00 0.00 41 1018.3
20260507143605 24 251 8.0 12.9 0.00 0.00 0.00 40 1018.3
20260507143506 24 222 8.0 12.9 0.00 0.00 0.00 41 1018.3
20260507143403 24 223 8.0 12.9 0.00 0.00 0.00 41 1018.2
20260507143304 24 236 6.4 12.9 0.00 0.00 0.00 43 1018.2
20260507143204 24 205 8.0 12.9 0.00 0.00 0.00 41 1018.2
20260507143102 24 197 8.0 14.5 0.00 0.00 0.00 42 1018.1
20260507143005 24 218 8.0 14.5 0.00 0.00 0.00 41 1018.1
20260507142904 23 193 8.0 14.5 0.00 0.00 0.00 41 1018.1
20260507142803 24 266 8.0 14.5 0.00 0.00 0.00 41 1018.1
20260507142707 24 259 8.0 14.5 0.00 0.00 0.00 40 1018.1
20260507142603 24 220 8.0 14.5 0.00 0.00 0.00 40 1018.1
20260507142505 24 209 6.4 14.5 0.00 0.00 0.00 40 1018.2
20260507142404 24 215 6.4 14.5 0.00 0.00 0.00 41 1018.1
20260507142306 24 234 8.0 14.5 0.00 0.00 0.00 42 1018.1
20260507142207 24 232 6.4 14.5 0.00 0.00 0.00 42 1018.1
20260507142103 24 212 6.4 14.5 0.00 0.00 0.00 43 1018.1
20260507142004 24 219 4.8 14.5 0.00 0.00 0.00 43 1018.0
20260507141902 24 230 4.8 11.3 0.00 0.00 0.00 43 1018.0
20260507141802 24 216 4.8 11.3 0.00 0.00 0.00 42 1018.0
20260507141706 24 217 4.8 11.3 0.00 0.00 0.00 42 1018.1
20260507141605 24 249 4.8 11.3 0.00 0.00 0.00 42 1018.1
20260507141504 24 224 6.4 11.3 0.00 0.00 0.00 40 1018.1
20260507141415 24 203 6.4 11.3 0.00 0.00 0.00 40 1018.1
20260507141303 23 212 4.8 11.3 0.00 0.00 0.00 44 1018.0
20260507141207 23 268 4.8 11.3 0.00 0.00 0.00 44 1018.1
20260507141103 23 255 4.8 11.3 0.00 0.00 0.00 44 1018.2
20260507141004 23 254 6.4 11.3 0.00 0.00 0.00 44 1018.2
20260507140903 23 283 6.4 11.3 0.00 0.00 0.00 45 1018.2
20260507140803 23 228 6.4 12.9 0.00 0.00 0.00 45 1018.2
20260507140705 24 223 6.4 12.9 0.00 0.00 0.00 46 1018.3
20260507140605 24 215 6.4 12.9 0.00 0.00 0.00 45 1018.3
20260507140500 23 309 6.4 12.9 0.00 0.00 0.00 44 1018.3
20260507140400 23 226 6.4 12.9 0.00 0.00 0.00 45 1018.3
20260507140301 23 247 8.0 12.9 0.00 0.00 0.00 43 1018.3
20260507140201 23 193 8.0 12.9 0.00 0.00 0.00 42 1018.4
20260507140100 23 195 8.0 12.9 0.00 0.00 0.00 41 1018.4
20260507135957 23 210 8.0 14.5 0.00 0.00 0.00 43 1018.4
20260507135856 23 263 8.0 14.5 0.00 0.00 0.00 45 1018.5
20260507135755 23 237 8.0 14.5 0.00 0.00 0.00 45 1018.5
20260507135656 23 290 8.0 14.5 0.00 0.00 0.00 44 1018.4
20260507135554 23 259 8.0 14.5 0.00 0.00 0.00 43 1018.4
20260507135451 24 259 8.0 14.5 0.00 0.00 0.00 42 1018.4
20260507135349 24 221 8.0 14.5 0.00 0.00 0.00 42 1018.4
20260507135249 24 219 8.0 14.5 0.00 0.00 0.00 44 1018.5
20260507135149 23 218 8.0 14.5 0.00 0.00 0.00 42 1018.4
20260507135049 24 203 8.0 14.5 0.00 0.00 0.00 41 1018.4
20260507134943 23 228 9.7 14.5 0.00 0.00 0.00 41 1018.3
20260507134843 23 217 9.7 14.5 0.00 0.00 0.00 42 1018.3
20260507134742 23 211 9.7 14.5 0.00 0.00 0.00 42 1018.3
20260507134643 23 199 9.7 14.5 0.00 0.00 0.00 40 1018.3
20260507134543 23 191 9.7 14.5 0.00 0.00 0.00 38 1018.4
20260507134437 23 243 9.7 14.5 0.00 0.00 0.00 37 1018.4
20260507134337 24 222 9.7 14.5 0.00 0.00 0.00 36 1018.3
20260507134237 24 234 9.7 14.5 0.00 0.00 0.00 35 1018.5
20260507134137 24 234 9.7 14.5 0.00 0.00 0.00 35 1018.5
20260507134037 24 232 8.0 14.5 0.00 0.00 0.00 34 1018.4
20260507133934 24 224 8.0 14.5 0.00 0.00 0.00 36 1018.4
20260507133834 24 224 8.0 14.5 0.00 0.00 0.00 36 1018.3
20260507133733 24 191 8.0 12.9 0.00 0.00 0.00 36 1018.3
20260507133634 24 219 8.0 17.7 0.00 0.00 0.00 35 1018.4
20260507133534 24 222 8.0 17.7 0.00 0.00 0.00 37 1018.5
20260507133434 24 235 8.0 17.7 0.00 0.00 0.00 39 1018.5
20260507133332 24 255 8.0 17.7 0.00 0.00 0.00 38 1018.5
20260507133232 24 216 8.0 17.7 0.00 0.00 0.00 39 1018.5
20260507133133 24 247 8.0 17.7 0.00 0.00 0.00 40 1018.5
20260507133033 24 253 8.0 17.7 0.00 0.00 0.00 39 1018.5
20260507132931 24 221 8.0 17.7 0.00 0.00 0.00 38 1018.4
20260507132834 24 214 8.0 17.7 0.00 0.00 0.00 37 1018.3
20260507132731 24 219 8.0 17.7 0.00 0.00 0.00 37 1018.3
20260507132631 24 257 8.0 12.9 0.00 0.00 0.00 36 1018.3
20260507132531 24 226 8.0 12.9 0.00 0.00 0.00 34 1018.3
20260507132433 24 219 8.0 12.9 0.00 0.00 0.00 32 1018.3
20260507132331 24 203 8.0 14.5 0.00 0.00 0.00 33 1018.2
20260507132232 24 253 8.0 14.5 0.00 0.00 0.00 35 1018.3
20260507132130 24 214 8.0 14.5 0.00 0.00 0.00 35 1018.3
20260507132030 24 235 8.0 14.5 0.00 0.00 0.00 35 1018.3
20260507131941 24 239 8.0 14.5 0.00 0.00 0.00 36 1018.2
20260507131833 24 247 8.0 14.5 0.00 0.00 0.00 36 1018.2
20260507131725 25 204 8.0 14.5 0.00 0.00 0.00 35 1018.3
20260507131623 24 193 8.0 14.5 0.00 0.00 0.00 37 1018.3
20260507131524 24 208 8.0 14.5 0.00 0.00 0.00 36 1018.3
20260507131427 24 255 8.0 14.5 0.00 0.00 0.00 38 1018.3
20260507131325 24 222 8.0 14.5 0.00 0.00 0.00 38 1018.3
20260507131221 25 220 6.4 14.5 0.00 0.00 0.00 38 1018.3
20260507131119 25 263 8.0 14.5 0.00 0.00 0.00 37 1018.3
20260507131020 25 251 8.0 14.5 0.00 0.00 0.00 36 1018.3
20260507130921 25 228 8.0 14.5 0.00 0.00 0.00 36 1018.2
20260507130819 25 241 8.0 14.5 0.00 0.00 0.00 34 1018.2
20260507130716 25 207 8.0 14.5 0.00 0.00 0.00 34 1018.2
20260507130626 25 216 8.0 14.5 0.00 0.00 0.00 33 1018.3
20260507130511 25 243 8.0 14.5 0.00 0.00 0.00 33 1018.3
20260507130412 25 218 8.0 14.5 0.00 0.00 0.00 34 1018.4
20260507130313 25 218 8.0 14.5 0.00 0.00 0.00 33 1018.5
20260507130207 25 212 8.0 14.5 0.00 0.00 0.00 31 1018.6
20260507130107 25 216 8.0 16.1 0.00 0.00 0.00 32 1018.5
20260507130005 25 239 8.0 16.1 0.00 0.00 0.00 34 1018.6
20260507125905 25 259 8.0 16.1 0.00 0.00 0.00 34 1018.6
20260507125805 25 218 8.0 16.1 0.00 0.00 0.00 35 1018.6
20260507125704 25 222 8.0 16.1 0.00 0.00 0.00 37 1018.7
20260507125604 25 237 8.0 16.1 0.00 0.00 0.00 37 1018.6
20260507125505 25 258 8.0 16.1 0.00 0.00 0.00 37 1018.7
20260507125404 25 230 8.0 16.1 0.00 0.00 0.00 37 1018.8
20260507125306 25 210 8.0 16.1 0.00 0.00 0.00 38 1018.8
20260507125203 25 212 8.0 16.1 0.00 0.00 0.00 38 1018.8
20260507125104 25 216 8.0 16.1 0.00 0.00 0.00 39 1018.8
20260507125004 24 243 9.7 14.5 0.00 0.00 0.00 39 1018.8
20260507124903 24 242 9.7 14.5 0.00 0.00 0.00 40 1018.8
20260507124803 24 222 9.7 17.7 0.00 0.00 0.00 41 1018.7
20260507124703 24 229 8.0 17.7 0.00 0.00 0.00 39 1018.6
20260507124605 24 243 9.7 17.7 0.00 0.00 0.00 40 1018.6
20260507124505 24 233 9.7 17.7 0.00 0.00 0.00 42 1018.6
20260507124403 24 233 9.7 17.7 0.00 0.00 0.00 42 1018.6
20260507124312 24 224 9.7 19.3 0.00 0.00 0.00 42 1018.6
20260507124202 24 222 11.3 19.3 0.00 0.00 0.00 42 1018.7
20260507124104 24 224 9.7 19.3 0.00 0.00 0.00 42 1018.8
20260507124003 25 201 11.3 19.3 0.00 0.00 0.00 42 1018.8
20260507123901 25 220 9.7 19.3 0.00 0.00 0.00 43 1018.7
20260507123801 24 223 11.3 19.3 0.00 0.00 0.00 43 1018.8
20260507123701 24 218 11.3 19.3 0.00 0.00 0.00 43 1018.9
20260507123603 24 201 11.3 19.3 0.00 0.00 0.00 43 1018.8
20260507123454 24 197 11.3 19.3 0.00 0.00 0.00 42 1018.9
20260507123355 24 230 11.3 19.3 0.00 0.00 0.00 44 1018.9
20260507123255 24 214 11.3 19.3 0.00 0.00 0.00 43 1018.8
20260507123154 24 229 11.3 19.3 0.00 0.00 0.00 42 1018.8
20260507123055 24 225 11.3 19.3 0.00 0.00 0.00 42 1018.8
20260507122950 24 220 11.3 19.3 0.00 0.00 0.00 44 1018.8
20260507122850 24 251 11.3 19.3 0.00 0.00 0.00 43 1018.8
20260507122751 25 205 12.9 19.3 0.00 0.00 0.00 43 1018.8
20260507122650 25 207 12.9 19.3 0.00 0.00 0.00 44 1018.8
20260507122549 25 247 12.9 19.3 0.00 0.00 0.00 44 1018.9
20260507122443 25 236 11.3 19.3 0.00 0.00 0.00 44 1018.8
20260507122342 25 212 11.3 19.3 0.00 0.00 0.00 46 1018.8
20260507122300 24 234 12.9 22.5 0.00 0.00 0.00 45 1018.8
20260507122143 24 196 12.9 22.5 0.00 0.00 0.00 44 1018.9
20260507122042 24 201 12.9 22.5 0.00 0.00 0.00 42 1018.9
20260507121937 24 216 12.9 22.5 0.00 0.00 0.00 39 1018.9
20260507121836 24 218 11.3 22.5 0.00 0.00 0.00 39 1018.9
20260507121737 24 235 11.3 22.5 0.00 0.00 0.00 40 1018.9
20260507121637 24 223 11.3 22.5 0.00 0.00 0.00 42 1018.8
20260507121536 24 240 11.3 22.5 0.00 0.00 0.00 41 1018.9
20260507121433 24 267 11.3 22.5 0.00 0.00 0.00 41 1018.8
20260507121332 25 230 11.3 22.5 0.00 0.00 0.00 40 1018.8
20260507121232 25 226 11.3 20.9 0.00 0.00 0.00 42 1018.7
20260507121133 25 187 11.3 20.9 0.00 0.00 0.00 42 1018.8
20260507121031 25 245 11.3 20.9 0.00 0.00 0.00 44 1018.8
20260507120933 25 214 11.3 20.9 0.00 0.00 0.00 43 1018.8
20260507120831 25 230 11.3 20.9 0.00 0.00 0.00 42 1018.8
20260507120732 24 225 12.9 20.9 0.00 0.00 0.00 41 1018.8
20260507120633 24 212 12.9 22.5 0.00 0.00 0.00 40 1018.8
20260507120531 24 229 12.9 22.5 0.00 0.00 0.00 38 1018.8
20260507120436 25 270 12.9 22.5 0.00 0.00 0.00 39 1018.8
20260507120332 25 231 12.9 22.5 0.00 0.00 0.00 40 1018.8
20260507120231 25 223 12.9 22.5 0.00 0.00 0.00 41 1018.8
20260507120133 25 222 12.9 22.5 0.00 0.00 0.00 41 1018.8
20260507120031 25 199 12.9 22.5 0.00 0.00 0.00 40 1018.8
20260507115933 25 197 12.9 22.5 0.00 0.00 0.00 40 1018.8
20260507115831 25 216 12.9 22.5 0.00 0.00 0.00 39 1018.8
20260507115630 25 217 11.3 22.5 0.00 0.00 0.00 37 1018.8
20260507115531 25 205 11.3 22.5 0.00 0.00 0.00 37 1018.7
20260507115430 25 208 12.9 22.5 0.00 0.00 0.00 37 1018.7
20260507115331 25 246 11.3 22.5 0.00 0.00 0.00 37 1018.7
20260507115225 25 257 11.3 22.5 0.00 0.00 0.00 39 1018.7
20260507115142 25 211 11.3 22.5 0.00 0.00 0.00 37 1018.6
20260507115037 25 213 11.3 22.5 0.00 0.00 0.00 36 1018.6
20260507114934 25 218 11.3 22.5 0.00 0.00 0.00 38 1018.6
20260507114828 25 209 11.3 22.5 0.00 0.00 0.00 36 1018.6
20260507114718 25 183 11.3 22.5 0.00 0.00 0.00 35 1018.6
20260507114618 25 212 11.3 19.3 0.00 0.00 0.00 33 1018.5
20260507114521 25 218 11.3 19.3 0.00 0.00 0.00 32 1018.5
20260507114419 25 214 11.3 22.5 0.00 0.00 0.00 36 1018.5
20260507114318 25 245 12.9 22.5 0.00 0.00 0.00 35 1018.5
20260507114211 25 210 12.9 22.5 0.00 0.00 0.00 33 1018.5
20260507114114 25 247 12.9 22.5 0.00 0.00 0.00 33 1018.5
20260507114013 25 224 12.9 22.5 0.00 0.00 0.00 33 1018.5
20260507113911 25 246 12.9 22.5 0.00 0.00 0.00 34 1018.5
20260507113813 25 254 12.9 22.5 0.00 0.00 0.00 33 1018.4
20260507113706 25 220 12.9 22.5 0.00 0.00 0.00 30 1018.4
20260507113605 25 220 12.9 22.5 0.00 0.00 0.00 30 1018.5
20260507113506 25 179 12.9 22.5 0.00 0.00 0.00 28 1018.5
20260507113406 25 228 12.9 19.3 0.00 0.00 0.00 27 1018.5
20260507113305 25 223 11.3 19.3 0.00 0.00 0.00 28 1018.5
20260507113203 25 216 11.3 19.3 0.00 0.00 0.00 28 1018.5
20260507113104 26 225 11.3 19.3 0.00 0.00 0.00 26 1018.5
20260507113004 26 231 11.3 19.3 0.00 0.00 0.00 27 1018.4
20260507112904 26 257 11.3 19.3 0.00 0.00 0.00 26 1018.5
20260507112803 26 217 11.3 19.3 0.00 0.00 0.00 25 1018.4
20260507112716 26 222 11.3 19.3 0.00 0.00 0.00 27 1018.4
20260507112604 26 218 11.3 19.3 0.00 0.00 0.00 28 1018.4
20260507112502 26 220 11.3 19.3 0.00 0.00 0.00 29 1018.4
20260507112403 26 189 9.7 19.3 0.00 0.00 0.00 30 1018.4
20260507112306 26 214 9.7 17.7 0.00 0.00 0.00 29 1018.4
20260507112204 26 213 9.7 17.7 0.00 0.00 0.00 28 1018.4
20260507112104 26 279 9.7 17.7 0.00 0.00 0.00 30 1018.4
20260507112004 26 210 9.7 17.7 0.00 0.00 0.00 33 1018.5
20260507111902 25 210 9.7 17.7 0.00 0.00 0.00 32 1018.4
20260507111803 25 220 9.7 17.7 0.00 0.00 0.00 29 1018.4
20260507111703 25 266 9.7 16.1 0.00 0.00 0.00 31 1018.4
20260507111604 25 211 9.7 16.1 0.00 0.00 0.00 32 1018.4
20260507111503 25 221 9.7 17.7 0.00 0.00 0.00 30 1018.5
20260507111403 25 212 11.3 17.7 0.00 0.00 0.00 27 1018.3
20260507111303 25 268 11.3 17.7 0.00 0.00 0.00 27 1018.5
20260507111202 25 232 11.3 17.7 0.00 0.00 0.00 27 1018.4
20260507111104 25 243 11.3 17.7 0.00 0.00 0.00 27 1018.4
20260507111003 25 239 11.3 19.3 0.00 0.00 0.00 29 1018.3
20260507110903 25 230 12.9 24.1 0.00 0.00 0.00 29 1018.3
20260507110802 25 226 12.9 24.1 0.00 0.00 0.00 29 1018.3
20260507110707 25 205 12.9 24.1 0.00 0.00 0.00 28 1018.3
20260507110603 25 216 12.9 24.1 0.00 0.00 0.00 31 1018.3
20260507110504 25 200 12.9 24.1 0.00 0.00 0.00 30 1018.3
20260507110402 25 216 12.9 24.1 0.00 0.00 0.00 31 1018.3
20260507110304 25 223 12.9 24.1 0.00 0.00 0.00 33 1018.4
20260507110202 25 225 12.9 24.1 0.00 0.00 0.00 33 1018.3
20260507110112 25 187 12.9 24.1 0.00 0.00 0.00 34 1018.3
20260507110010 25 200 12.9 24.1 0.00 0.00 0.00 33 1018.4
20260507105907 25 186 12.9 20.9 0.00 0.00 0.00 36 1018.4
20260507105803 25 239 12.9 20.9 0.00 0.00 0.00 35 1018.4
20260507105703 25 207 12.9 22.5 0.00 0.00 0.00 34 1018.4
20260507105603 25 205 12.9 22.5 0.00 0.00 0.00 32 1018.4
20260507105502 25 222 12.9 22.5 0.00 0.00 0.00 35 1018.5
20260507105404 25 212 12.9 22.5 0.00 0.00 0.00 36 1018.5
20260507105306 25 227 11.3 22.5 0.00 0.00 0.00 35 1018.5
20260507105203 25 218 11.3 22.5 0.00 0.00 0.00 31 1018.5
20260507105103 25 260 11.3 22.5 0.00 0.00 0.00 31 1018.5
20260507105002 25 230 11.3 22.5 0.00 0.00 0.00 33 1018.5
20260507104902 25 226 11.3 22.5 0.00 0.00 0.00 34 1018.4
20260507104802 25 213 11.3 22.5 0.00 0.00 0.00 35 1018.5
20260507104703 25 221 9.7 20.9 0.00 0.00 0.00 36 1018.5
20260507104604 25 233 9.7 20.9 0.00 0.00 0.00 35 1018.3
20260507104504 25 228 9.7 17.7 0.00 0.00 0.00 36 1018.4
20260507104403 25 278 9.7 17.7 0.00 0.00 0.00 36 1018.3
20260507104303 25 264 9.7 16.1 0.00 0.00 0.00 35 1018.4
20260507104205 25 212 9.7 16.1 0.00 0.00 0.00 36 1018.3
20260507104100 25 232 9.7 16.1 0.00 0.00 0.00 33 1018.3
20260507104001 25 231 9.7 16.1 0.00 0.00 0.00 33 1018.3
20260507103900 26 294 9.7 16.1 0.00 0.00 0.00 34 1018.3
20260507103759 26 255 9.7 16.1 0.00 0.00 0.00 33 1018.3
20260507103703 26 238 9.7 16.1 0.00 0.00 0.00 37 1018.2
20260507103554 26 244 9.7 16.1 0.00 0.00 0.00 37 1018.3
20260507103456 25 226 9.7 16.1 0.00 0.00 0.00 34 1018.2
20260507103355 25 189 8.0 16.1 0.00 0.00 0.00 34 1018.2
20260507103253 25 164 9.7 16.1 0.00 0.00 0.00 34 1018.2
20260507103152 25 210 9.7 16.1 0.00 0.00 0.00 34 1018.2
20260507103049 25 202 9.7 16.1 0.00 0.00 0.00 33 1018.1
20260507102947 25 203 9.7 17.7 0.00 0.00 0.00 34 1018.2
20260507102846 25 246 9.7 17.7 0.00 0.00 0.00 34 1018.2
20260507102746 25 181 9.7 17.7 0.00 0.00 0.00 35 1018.1
20260507102647 25 197 9.7 17.7 0.00 0.00 0.00 35 1018.2
20260507102540 25 183 9.7 20.9 0.00 0.00 0.00 35 1018.1
20260507102439 25 266 9.7 20.9 0.00 0.00 0.00 34 1018.1
20260507102341 25 216 9.7 20.9 0.00 0.00 0.00 35 1018.2
20260507102240 25 200 9.7 20.9 0.00 0.00 0.00 35 1018.2
20260507102140 25 219 9.7 20.9 0.00 0.00 0.00 36 1018.3
20260507102035 25 212 9.7 20.9 0.00 0.00 0.00 34 1018.2
20260507101934 25 253 9.7 20.9 0.00 0.00 0.00 36 1018.3
20260507101833 25 214 9.7 20.9 0.00 0.00 0.00 36 1018.3
20260507101734 25 205 9.7 20.9 0.00 0.00 0.00 34 1018.3
20260507101633 25 195 9.7 20.9 0.00 0.00 0.00 34 1018.3
20260507101534 25 185 9.7 17.7 0.00 0.00 0.00 36 1018.4
20260507101433 25 224 9.7 17.7 0.00 0.00 0.00 36 1018.4
20260507101335 25 181 11.3 17.7 0.00 0.00 0.00 34 1018.4
20260507101235 25 205 11.3 17.7 0.00 0.00 0.00 35 1018.5
20260507101132 24 207 11.3 17.7 0.00 0.00 0.00 36 1018.4
20260507101032 24 208 9.7 17.7 0.00 0.00 0.00 35 1018.4
20260507100933 24 207 9.7 17.7 0.00 0.00 0.00 38 1018.5
20260507100831 24 203 9.7 17.7 0.00 0.00 0.00 41 1018.5
20260507100732 24 224 9.7 17.7 0.00 0.00 0.00 39 1018.6
20260507100632 24 197 9.7 22.5 0.00 0.00 0.00 37 1018.6
20260507100532 25 237 11.3 22.5 0.00 0.00 0.00 35 1018.6
20260507100433 25 236 11.3 22.5 0.00 0.00 0.00 36 1018.6
20260507100331 25 196 11.3 22.5 0.00 0.00 0.00 36 1018.6
20260507100233 25 208 11.3 22.5 0.00 0.00 0.00 37 1018.6
20260507100131 25 233 9.7 22.5 0.00 0.00 0.00 34 1018.6
20260507100032 25 132 9.7 22.5 0.00 0.00 0.00 33 1018.6
20260507095933 25 216 11.3 22.5 0.00 0.00 0.00 35 1018.6
20260507095831 25 216 11.3 22.5 0.00 0.00 0.00 35 1018.6
20260507095732 25 172 11.3 22.5 0.00 0.00 0.00 32 1018.7
20260507095632 25 205 11.3 20.9 0.00 0.00 0.00 39 1018.7
20260507095534 25 215 11.3 19.3 0.00 0.00 0.00 40 1018.7
20260507095433 25 218 11.3 19.3 0.00 0.00 0.00 37 1018.7
20260507095332 25 210 11.3 19.3 0.00 0.00 0.00 38 1018.7
20260507095232 25 222 11.3 19.3 0.00 0.00 0.00 38 1018.7
20260507095131 24 212 11.3 19.3 0.00 0.00 0.00 39 1018.7
20260507095031 24 240 11.3 19.3 0.00 0.00 0.00 35 1018.8
20260507094933 24 191 11.3 19.3 0.00 0.00 0.00 35 1018.9
20260507094832 24 204 11.3 19.3 0.00 0.00 0.00 36 1018.9
20260507094732 24 221 11.3 19.3 0.00 0.00 0.00 39 1018.9
20260507094633 24 210 11.3 19.3 0.00 0.00 0.00 40 1018.8
20260507094529 24 222 11.3 19.3 0.00 0.00 0.00 39 1018.8
20260507094430 25 207 11.3 19.3 0.00 0.00 0.00 40 1018.8
20260507094330 24 166 11.3 19.3 0.00 0.00 0.00 40 1018.8
20260507094229 24 254 11.3 19.3 0.00 0.00 0.00 38 1018.8
20260507094131 24 222 11.3 19.3 0.00 0.00 0.00 37 1018.8
20260507094029 24 196 11.3 19.3 0.00 0.00 0.00 37 1018.9
20260507093929 24 220 11.3 20.9 0.00 0.00 0.00 38 1018.9
20260507093830 24 193 11.3 20.9 0.00 0.00 0.00 38 1018.9
20260507093732 24 255 11.3 20.9 0.00 0.00 0.00 40 1018.9
20260507093627 24 214 11.3 20.9 0.00 0.00 0.00 41 1018.8
20260507093527 24 221 11.3 20.9 0.00 0.00 0.00 41 1018.8
20260507093428 24 255 11.3 20.9 0.00 0.00 0.00 40 1018.8
20260507093327 24 241 11.3 20.9 0.00 0.00 0.00 42 1018.7
20260507093226 24 212 12.9 20.9 0.00 0.00 0.00 40 1018.8
20260507093125 23 187 12.9 25.7 0.00 0.00 0.00 40 1018.8
20260507093027 23 186 12.9 25.7 0.00 0.00 0.00 43 1018.7
20260507092921 23 223 12.9 25.7 0.00 0.00 0.00 43 1018.8
20260507092823 23 187 12.9 25.7 0.00 0.00 0.00 46 1018.8
20260507092724 23 222 12.9 25.7 0.00 0.00 0.00 47 1018.8
20260507092621 23 206 12.9 25.7 0.00 0.00 0.00 45 1018.8
20260507092522 23 183 12.9 25.7 0.00 0.00 0.00 45 1018.8
20260507092421 23 201 12.9 25.7 0.00 0.00 0.00 48 1018.9
20260507092322 23 202 12.9 25.7 0.00 0.00 0.00 49 1018.9
20260507092222 23 186 11.3 25.7 0.00 0.00 0.00 50 1018.9
20260507092121 23 189 11.3 20.9 0.00 0.00 0.00 51 1018.9
20260507092022 23 204 11.3 19.3 0.00 0.00 0.00 55 1018.9
20260507091921 23 222 11.3 19.3 0.00 0.00 0.00 56 1018.9
20260507091824 23 190 11.3 20.9 0.00 0.00 0.00 55 1018.9
20260507091721 23 260 11.3 20.9 0.00 0.00 0.00 55 1019.0
20260507091622 23 220 11.3 20.9 0.00 0.00 0.00 56 1019.0
20260507091521 23 285 11.3 20.9 0.00 0.00 0.00 57 1019.0
20260507091422 23 222 11.3 20.9 0.00 0.00 0.00 58 1019.1
20260507091322 23 187 11.3 25.7 0.00 0.00 0.00 58 1019.1
20260507091221 22 181 11.3 25.7 0.00 0.00 0.00 57 1019.2
20260507091123 22 228 12.9 25.7 0.00 0.00 0.00 58 1019.1
20260507091017 22 228 12.9 25.7 0.00 0.00 0.00 58 1019.1
20260507090917 22 221 12.9 25.7 0.00 0.00 0.00 59 1019.2
20260507090819 22 237 11.3 25.7 0.00 0.00 0.00 60 1019.1
20260507090718 22 269 11.3 25.7 0.00 0.00 0.00 59 1019.1
20260507090617 22 204 12.9 25.7 0.00 0.00 0.00 59 1019.1
20260507090518 23 251 12.9 25.7 0.00 0.00 0.00 58 1019.1
20260507090418 23 240 12.9 25.7 0.00 0.00 0.00 58 1019.0
20260507090317 23 236 11.3 24.1 0.00 0.00 0.00 59 1019.1
20260507090218 23 201 11.3 24.1 0.00 0.00 0.00 58 1019.0
20260507090117 23 234 11.3 22.5 0.00 0.00 0.00 59 1019.0
20260507090019 23 269 11.3 20.9 0.00 0.00 0.00 58 1018.9
20260507085918 23 212 11.3 24.1 0.00 0.00 0.00 56 1018.9
20260507085819 23 218 11.3 24.1 0.00 0.00 0.00 56 1019.0
20260507085717 23 245 11.3 24.1 0.00 0.00 0.00 55 1019.0
20260507085618 23 214 11.3 24.1 0.00 0.00 0.00 55 1019.0
20260507085518 23 229 12.9 24.1 0.00 0.00 0.00 53 1019.0
20260507085417 23 211 12.9 24.1 0.00 0.00 0.00 53 1019.0
20260507085317 23 235 12.9 24.1 0.00 0.00 0.00 49 1019.0
20260507085219 23 262 14.5 24.1 0.00 0.00 0.00 46 1019.0
20260507085111 23 227 14.5 24.1 0.00 0.00 0.00 46 1018.9
20260507085012 23 242 14.5 24.1 0.00 0.00 0.00 48 1018.9
20260507084912 23 237 14.5 24.1 0.00 0.00 0.00 49 1018.9
20260507084811 23 260 14.5 24.1 0.00 0.00 0.00 46 1018.9
20260507084712 23 238 14.5 24.1 0.00 0.00 0.00 45 1018.8
20260507084613 23 224 14.5 24.1 0.00 0.00 0.00 42 1018.8
20260507084511 24 225 14.5 24.1 0.00 0.00 0.00 41 1018.8
20260507084411 24 220 14.5 24.1 0.00 0.00 0.00 43 1018.7
20260507084313 24 222 14.5 24.1 0.00 0.00 0.00 43 1018.8
20260507084211 25 229 14.5 24.1 0.00 0.00 0.00 40 1018.7
20260507084112 24 199 14.5 24.1 0.00 0.00 0.00 40 1018.7
20260507084013 24 210 14.5 24.1 0.00 0.00 0.00 39 1018.8
20260507083908 24 230 14.5 22.5 0.00 0.00 0.00 36 1018.7
20260507083806 24 212 14.5 22.5 0.00 0.00 0.00 31 1018.8
20260507083708 24 218 14.5 22.5 0.00 0.00 0.00 31 1018.8
20260507083608 24 228 12.9 22.5 0.00 0.00 0.00 32 1018.7
20260507083507 24 239 14.5 22.5 0.00 0.00 0.00 32 1018.7
20260507083408 24 253 14.5 22.5 0.00 0.00 0.00 31 1018.7
20260507083308 24 224 12.9 22.5 0.00 0.00 0.00 31 1018.7
20260507083208 24 221 12.9 22.5 0.00 0.00 0.00 30 1018.6